Time,TemperatureF,DewpointF,PressureIn,WindDirection,WindDirectionDegrees,WindSpeedMPH,WindSpeedGustMPH,Humidity,HourlyPrecipIn,Conditions,Clouds,dailyrainin,SolarRadiationWatts/m^2,SoftwareType,DateUTC
2013-03-26 00:00:00,42.6,14.8,30.41,NNW,343,3.0,3.0,32,0.00,,,0.00,0,Wunderground v.1.15,2013-03-26 05:00:00,
2013-03-26 00:03:00,42.5,14.7,30.41,North,355,3.0,3.0,32,0.00,,,0.00,0,Wunderground v.1.15,2013-03-26 05:03:00,
2013-03-26 00:04:00,42.5,14.7,30.41,North,351,3.0,6.0,32,0.00,,,0.00,0,Wunderground v.1.15,2013-03-26 05:04:00,
2013-03-26 00:05:00,42.5,14.7,30.41,NNW,344,3.0,6.0,32,0.00,,,0.00,0,Wunderground v.1.15,2013-03-26 05:05:00,
2013-03-26 00:07:00,42.4,14.6,30.41,North,5,3.0,6.0,32,0.00,,,0.00,0,Wunderground v.1.15,2013-03-26 05:07:00,
2013-03-26 00:11:00,42.4,14.6,30.41,North,5,3.0,4.0,32,0.00,,,0.00,0,Wunderground v.1.15,2013-03-26 05:11:00,
2013-03-26 00:12:00,42.4,15.3,30.41,North,5,3.0,4.0,33,0.00,,,0.00,0,Wunderground v.1.15,2013-03-26 05:12:00,
2013-03-26 00:13:00,42.3,14.5,30.41,North,5,3.0,4.0,32,0.00,,,0.00,0,Wunderground v.1.15,2013-03-26 05:13:00,
2013-03-26 00:14:00,42.3,15.2,30.40,North,5,3.0,4.0,33,0.00,,,0.00,0,Wunderground v.1.15,2013-03-26 05:14:00,
2013-03-26 00:16:00,42.2,15.1,30.41,North,355,2.0,4.0,33,0.00,,,0.00,0,Wunderground v.1.15,2013-03-26 05:16:00,
2013-03-26 00:20:00,42.1,15.0,30.40,North,5,2.0,2.0,33,0.00,,,0.00,0,Wunderground v.1.15,2013-03-26 05:20:00,
2013-03-26 00:21:00,42.1,15.0,30.40,North,5,2.0,2.0,33,0.00,,,0.00,0,Wunderground v.1.15,2013-03-26 05:21:00,
2013-03-26 00:22:00,42.1,15.0,30.41,North,355,2.0,2.0,33,0.00,,,0.00,0,Wunderground v.1.15,2013-03-26 05:22:00,
2013-03-26 00:26:00,42.0,14.9,30.40,NNW,333,3.0,5.0,33,0.00,,,0.00,0,Wunderground v.1.15,2013-03-26 05:26:00,
2013-03-26 00:27:00,42.0,14.9,30.40,NNW,344,3.0,5.0,33,0.00,,,0.00,0,Wunderground v.1.15,2013-03-26 05:27:00,
2013-03-26 00:29:00,42.0,14.9,30.40,NNW,340,3.0,5.0,33,0.00,,,0.00,0,Wunderground v.1.15,2013-03-26 05:29:00,
2013-03-26 00:32:00,41.9,14.8,30.40,NW,306,3.0,3.0,33,0.00,,,0.00,0,Wunderground v.1.15,2013-03-26 05:32:00,
2013-03-26 00:34:00,41.9,14.8,30.40,NW,322,3.0,3.0,33,0.00,,,0.00,0,Wunderground v.1.15,2013-03-26 05:34:00,
2013-03-26 00:37:00,41.8,15.4,30.40,NNW,332,2.0,3.0,34,0.00,,,0.00,0,Wunderground v.1.15,2013-03-26 05:37:00,
2013-03-26 00:38:00,41.8,15.4,30.40,NNW,332,2.0,3.0,34,0.00,,,0.00,0,Wunderground v.1.15,2013-03-26 05:38:00,
2013-03-26 00:40:00,41.8,14.8,30.40,NNW,333,2.0,3.0,33,0.00,,,0.00,0,Wunderground v.1.15,2013-03-26 05:40:00,
2013-03-26 00:41:00,41.8,14.8,30.40,NNW,333,2.0,3.0,33,0.00,,,0.00,0,Wunderground v.1.15,2013-03-26 05:41:00,
2013-03-26 00:42:00,41.7,15.4,30.40,NNW,333,2.0,3.0,34,0.00,,,0.00,0,Wunderground v.1.15,2013-03-26 05:42:00,
2013-03-26 00:43:00,41.7,15.4,30.40,NNW,334,2.0,3.0,34,0.00,,,0.00,0,Wunderground v.1.15,2013-03-26 05:43:00,
2013-03-26 00:45:00,41.6,15.3,30.40,NNW,334,2.0,5.0,34,0.00,,,0.00,0,Wunderground v.1.15,2013-03-26 05:45:00,
2013-03-26 00:48:00,41.6,14.6,30.40,North,355,3.0,5.0,33,0.00,,,0.00,0,Wunderground v.1.15,2013-03-26 05:48:00,
2013-03-26 00:49:00,41.7,14.7,30.40,North,355,3.0,5.0,33,0.00,,,0.00,0,Wunderground v.1.15,2013-03-26 05:49:00,
2013-03-26 00:52:00,41.7,15.4,30.40,North,355,2.0,3.0,34,0.00,,,0.00,0,Wunderground v.1.15,2013-03-26 05:52:00,
2013-03-26 00:53:00,41.6,15.3,30.40,North,355,2.0,3.0,34,0.00,,,0.00,0,Wunderground v.1.15,2013-03-26 05:53:00,
2013-03-26 00:55:00,41.6,15.3,30.40,North,355,2.0,3.0,34,0.00,,,0.00,0,Wunderground v.1.15,2013-03-26 05:55:00,
2013-03-26 00:58:00,41.5,15.2,30.40,NNE,26,2.0,6.0,34,0.00,,,0.00,0,Wunderground v.1.15,2013-03-26 05:58:00,
2013-03-26 01:01:00,41.5,15.2,30.40,North,350,2.0,2.0,34,0.00,,,0.00,0,Wunderground v.1.15,2013-03-26 06:01:00,
2013-03-26 01:04:00,41.4,15.1,30.40,North,350,2.0,2.0,34,0.00,,,0.00,0,Wunderground v.1.15,2013-03-26 06:04:00,
2013-03-26 01:05:00,41.4,15.1,30.40,North,355,2.0,3.0,34,0.00,,,0.00,0,Wunderground v.1.15,2013-03-26 06:05:00,
2013-03-26 01:07:00,41.3,15.0,30.40,NNW,330,2.0,4.0,34,0.00,,,0.00,0,Wunderground v.1.15,2013-03-26 06:07:00,
2013-03-26 01:08:00,41.3,15.0,30.40,NNW,327,2.0,4.0,34,0.00,,,0.00,0,Wunderground v.1.15,2013-03-26 06:08:00,
2013-03-26 01:10:00,41.3,15.0,30.40,NNW,338,2.0,4.0,34,0.00,,,0.00,0,Wunderground v.1.15,2013-03-26 06:10:00,
2013-03-26 01:12:00,41.3,15.7,30.40,NNW,338,2.0,2.0,35,0.00,,,0.00,0,Wunderground v.1.15,2013-03-26 06:12:00,
2013-03-26 01:14:00,41.2,15.6,30.40,NNW,338,2.0,2.0,35,0.00,,,0.00,0,Wunderground v.1.15,2013-03-26 06:14:00,
2013-03-26 01:15:00,41.1,15.5,30.40,NNW,338,2.0,2.0,35,0.00,,,0.00,0,Wunderground v.1.15,2013-03-26 06:15:00,
2013-03-26 01:18:00,41.0,15.4,30.40,NNW,327,2.0,4.0,35,0.00,,,0.00,0,Wunderground v.1.15,2013-03-26 06:18:00,
2013-03-26 01:19:00,41.0,15.4,30.40,NNW,331,1.0,4.0,35,0.00,,,0.00,0,Wunderground v.1.15,2013-03-26 06:19:00,
2013-03-26 01:20:00,41.0,15.4,30.40,North,349,2.0,4.0,35,0.00,,,0.00,0,Wunderground v.1.15,2013-03-26 06:20:00,
2013-03-26 01:21:00,41.0,15.4,30.40,NNW,348,2.0,2.0,35,0.00,,,0.00,0,Wunderground v.1.15,2013-03-26 06:21:00,
2013-03-26 01:26:00,40.9,15.3,30.40,NNW,345,2.0,4.0,35,0.00,,,0.00,0,Wunderground v.1.15,2013-03-26 06:26:00,
2013-03-26 01:27:00,40.8,15.2,30.40,NNW,345,2.0,4.0,35,0.00,,,0.00,0,Wunderground v.1.15,2013-03-26 06:27:00,
2013-03-26 01:30:00,40.7,15.8,30.40,NNW,345,1.0,4.0,36,0.00,,,0.00,0,Wunderground v.1.15,2013-03-26 06:30:00,
2013-03-26 01:31:00,40.7,15.8,30.40,NNW,345,1.0,1.0,36,0.00,,,0.00,0,Wunderground v.1.15,2013-03-26 06:31:00,
2013-03-26 01:32:00,40.7,15.8,30.40,NNW,345,1.0,1.0,36,0.00,,,0.00,0,Wunderground v.1.15,2013-03-26 06:32:00,
2013-03-26 01:34:00,40.6,16.3,30.40,NNW,345,0.0,1.0,37,0.00,,,0.00,0,Wunderground v.1.15,2013-03-26 06:34:00,
2013-03-26 01:36:00,40.5,15.6,30.40,NNW,342,0.0,3.0,36,0.00,,,0.00,0,Wunderground v.1.15,2013-03-26 06:36:00,
2013-03-26 01:37:00,40.5,15.6,30.40,NNW,334,0.0,3.0,36,0.00,,,0.00,0,Wunderground v.1.15,2013-03-26 06:37:00,
2013-03-26 01:38:00,40.5,15.6,30.40,NNW,327,1.0,3.0,36,0.00,,,0.00,0,Wunderground v.1.15,2013-03-26 06:38:00,
2013-03-26 01:44:00,40.5,15.6,30.40,NNW,339,1.0,2.0,36,0.00,,,0.00,0,Wunderground v.1.15,2013-03-26 06:44:00,
2013-03-26 01:45:00,40.5,15.6,30.40,NNW,339,1.0,2.0,36,0.00,,,0.00,0,Wunderground v.1.15,2013-03-26 06:45:00,
2013-03-26 01:47:00,40.4,15.5,30.40,NNW,339,1.0,3.0,36,0.00,,,0.00,0,Wunderground v.1.15,2013-03-26 06:47:00,
2013-03-26 01:49:00,40.4,15.5,30.40,North,350,1.0,3.0,36,0.00,,,0.00,0,Wunderground v.1.15,2013-03-26 06:49:00,
2013-03-26 01:52:00,40.4,15.5,30.40,North,350,1.0,1.0,36,0.00,,,0.00,0,Wunderground v.1.15,2013-03-26 06:52:00,
2013-03-26 01:54:00,40.5,15.6,30.40,North,350,1.0,1.0,36,0.00,,,0.00,0,Wunderground v.1.15,2013-03-26 06:54:00,
2013-03-26 01:55:00,40.5,16.2,30.40,North,350,1.0,1.0,37,0.00,,,0.00,0,Wunderground v.1.15,2013-03-26 06:55:00,
2013-03-26 01:59:00,40.4,16.8,30.40,North,350,0.0,1.0,38,0.00,,,0.00,0,Wunderground v.1.15,2013-03-26 06:59:00,
2013-03-26 02:02:00,40.1,17.7,30.40,North,350,0.0,0.0,40,0.00,,,0.00,0,Wunderground v.1.15,2013-03-26 07:02:00,
2013-03-26 02:03:00,39.9,17.5,30.40,North,350,0.0,1.0,40,0.00,,,0.00,0,Wunderground v.1.15,2013-03-26 07:03:00,
2013-03-26 02:04:00,39.8,16.8,30.40,North,350,0.0,1.0,39,0.00,,,0.00,0,Wunderground v.1.15,2013-03-26 07:04:00,
2013-03-26 02:05:00,39.7,16.7,30.40,North,350,0.0,1.0,39,0.00,,,0.00,0,Wunderground v.1.15,2013-03-26 07:05:00,
2013-03-26 02:08:00,39.5,17.1,30.40,North,350,0.0,1.0,40,0.00,,,0.00,0,Wunderground v.1.15,2013-03-26 07:08:00,
2013-03-26 02:10:00,39.3,17.0,30.40,NNW,348,0.0,3.0,40,0.00,,,0.00,0,Wunderground v.1.15,2013-03-26 07:10:00,
2013-03-26 02:12:00,39.3,17.0,30.40,NNW,348,1.0,3.0,40,0.00,,,0.00,0,Wunderground v.1.15,2013-03-26 07:12:00,
2013-03-26 02:13:00,39.2,17.4,30.40,NNW,348,1.0,3.0,41,0.00,,,0.00,0,Wunderground v.1.15,2013-03-26 07:13:00,
2013-03-26 02:17:00,38.9,17.2,30.40,NNW,348,1.0,3.0,41,0.00,,,0.00,0,Wunderground v.1.15,2013-03-26 07:17:00,
2013-03-26 02:19:00,39.0,16.7,30.40,NNW,346,2.0,3.0,40,0.00,,,0.00,0,Wunderground v.1.15,2013-03-26 07:19:00,
2013-03-26 02:24:00,38.7,17.5,30.40,NNW,345,2.0,3.0,42,0.00,,,0.00,0,Wunderground v.1.15,2013-03-26 07:24:00,
2013-03-26 02:25:00,38.6,17.5,30.40,NNW,345,2.0,3.0,42,0.00,,,0.00,0,Wunderground v.1.15,2013-03-26 07:25:00,
2013-03-26 02:26:00,38.6,17.5,30.40,NNW,343,2.0,4.0,42,0.00,,,0.00,0,Wunderground v.1.15,2013-03-26 07:26:00,
2013-03-26 02:27:00,38.5,17.4,30.40,NNW,340,2.0,4.0,42,0.00,,,0.00,0,Wunderground v.1.15,2013-03-26 07:27:00,
2013-03-26 02:32:00,38.1,18.1,30.40,NNW,339,3.0,4.0,44,0.00,,,0.00,0,Wunderground v.1.15,2013-03-26 07:32:00,
2013-03-26 02:33:00,38.1,18.1,30.40,NNW,339,2.0,4.0,44,0.00,,,0.00,0,Wunderground v.1.15,2013-03-26 07:33:00,
2013-03-26 02:34:00,38.0,18.0,30.40,NNW,339,2.0,4.0,44,0.00,,,0.00,0,Wunderground v.1.15,2013-03-26 07:34:00,
2013-03-26 02:39:00,37.7,18.2,30.40,NNW,339,1.0,4.0,45,0.00,,,0.00,0,Wunderground v.1.15,2013-03-26 07:39:00,
2013-03-26 02:40:00,37.7,18.2,30.40,NNW,339,1.0,4.0,45,0.00,,,0.00,0,Wunderground v.1.15,2013-03-26 07:40:00,
2013-03-26 02:42:00,37.6,18.2,30.40,NNW,339,1.0,1.0,45,0.00,,,0.00,0,Wunderground v.1.15,2013-03-26 07:42:00,
2013-03-26 02:44:00,37.5,18.1,30.40,NNW,339,1.0,1.0,45,0.00,,,0.00,0,Wunderground v.1.15,2013-03-26 07:44:00,
2013-03-26 02:45:00,37.5,18.6,30.40,NNW,339,1.0,1.0,46,0.00,,,0.00,0,Wunderground v.1.15,2013-03-26 07:45:00,
2013-03-26 02:49:00,37.3,18.4,30.39,NNW,339,1.0,3.0,46,0.00,,,0.00,0,Wunderground v.1.15,2013-03-26 07:49:00,
2013-03-26 02:53:00,37.1,18.2,30.40,NNW,339,1.0,2.0,46,0.00,,,0.00,0,Wunderground v.1.15,2013-03-26 07:53:00,
2013-03-26 02:57:00,37.1,18.2,30.40,NNW,339,1.0,2.0,46,0.00,,,0.00,0,Wunderground v.1.15,2013-03-26 07:57:00,
2013-03-26 02:58:00,37.0,18.6,30.40,NNW,339,1.0,2.0,47,0.00,,,0.00,0,Wunderground v.1.15,2013-03-26 07:58:00,
2013-03-26 03:01:00,37.0,18.6,30.40,NNW,339,1.0,1.0,47,0.00,,,0.00,0,Wunderground v.1.15,2013-03-26 08:01:00,
2013-03-26 03:03:00,37.0,18.6,30.39,NNW,339,1.0,1.0,47,0.00,,,0.00,0,Wunderground v.1.15,2013-03-26 08:03:00,
2013-03-26 03:05:00,37.0,18.6,30.40,NNW,339,1.0,2.0,47,0.00,,,0.00,0,Wunderground v.1.15,2013-03-26 08:05:00,
2013-03-26 03:09:00,37.0,18.6,30.40,NNW,339,1.0,2.0,47,0.00,,,0.00,0,Wunderground v.1.15,2013-03-26 08:09:00,
2013-03-26 03:11:00,37.0,18.6,30.39,NNW,339,0.0,0.0,47,0.00,,,0.00,0,Wunderground v.1.15,2013-03-26 08:11:00,
2013-03-26 03:12:00,37.0,18.6,30.40,NNW,339,0.0,2.0,47,0.00,,,0.00,0,Wunderground v.1.15,2013-03-26 08:12:00,
2013-03-26 03:13:00,37.0,18.6,30.39,NNW,339,1.0,2.0,47,0.00,,,0.00,0,Wunderground v.1.15,2013-03-26 08:13:00,
2013-03-26 03:15:00,36.9,19.0,30.40,NNW,339,1.0,2.0,48,0.00,,,0.00,0,Wunderground v.1.15,2013-03-26 08:15:00,
2013-03-26 03:20:00,36.8,18.9,30.39,NNW,339,1.0,2.0,48,0.00,,,0.00,0,Wunderground v.1.15,2013-03-26 08:20:00,
2013-03-26 03:22:00,36.8,18.9,30.40,NNW,339,1.0,1.0,48,0.00,,,0.00,0,Wunderground v.1.15,2013-03-26 08:22:00,
2013-03-26 03:24:00,36.8,18.9,30.40,NNW,339,1.0,1.0,48,0.00,,,0.00,0,Wunderground v.1.15,2013-03-26 08:24:00,
2013-03-26 03:26:00,36.8,18.9,30.40,NNW,339,1.0,1.0,48,0.00,,,0.00,0,Wunderground v.1.15,2013-03-26 08:26:00,
2013-03-26 03:29:00,36.7,18.8,30.40,NNW,339,0.0,1.0,48,0.00,,,0.00,0,Wunderground v.1.15,2013-03-26 08:29:00,
2013-03-26 03:31:00,36.7,18.8,30.40,NNW,339,0.0,0.0,48,0.00,,,0.00,0,Wunderground v.1.15,2013-03-26 08:31:00,
2013-03-26 03:32:00,36.7,18.8,30.40,NNW,339,0.0,1.0,48,0.00,,,0.00,0,Wunderground v.1.15,2013-03-26 08:32:00,
2013-03-26 03:33:00,36.7,18.8,30.40,NNW,339,0.0,1.0,48,0.00,,,0.00,0,Wunderground v.1.15,2013-03-26 08:33:00,
2013-03-26 03:35:00,36.7,18.8,30.39,NNW,339,1.0,2.0,48,0.00,,,0.00,0,Wunderground v.1.15,2013-03-26 08:35:00,
2013-03-26 03:37:00,36.7,18.8,30.40,NNW,339,1.0,3.0,48,0.00,,,0.00,0,Wunderground v.1.15,2013-03-26 08:37:00,
2013-03-26 03:40:00,36.8,18.9,30.39,NNW,339,1.0,3.0,48,0.00,,,0.00,0,Wunderground v.1.15,2013-03-26 08:40:00,
2013-03-26 03:43:00,36.8,18.9,30.40,NNW,339,1.0,1.0,48,0.00,,,0.00,0,Wunderground v.1.15,2013-03-26 08:43:00,
2013-03-26 03:44:00,36.8,18.9,30.39,NNW,339,1.0,1.0,48,0.00,,,0.00,0,Wunderground v.1.15,2013-03-26 08:44:00,
2013-03-26 03:48:00,36.8,18.9,30.40,NNW,339,0.0,1.0,48,0.00,,,0.00,0,Wunderground v.1.15,2013-03-26 08:48:00,
2013-03-26 03:49:00,36.7,19.3,30.40,NNW,339,0.0,1.0,49,0.00,,,0.00,0,Wunderground v.1.15,2013-03-26 08:49:00,
2013-03-26 03:50:00,36.7,19.3,30.40,NNW,339,0.0,1.0,49,0.00,,,0.00,0,Wunderground v.1.15,2013-03-26 08:50:00,
2013-03-26 03:51:00,36.7,19.3,30.40,NNW,339,0.0,0.0,49,0.00,,,0.00,0,Wunderground v.1.15,2013-03-26 08:51:00,
2013-03-26 03:54:00,36.6,19.7,30.39,NNW,339,0.0,0.0,50,0.00,,,0.00,0,Wunderground v.1.15,2013-03-26 08:54:00,
2013-03-26 03:55:00,36.6,20.2,30.39,NNW,339,0.0,0.0,51,0.00,,,0.00,0,Wunderground v.1.15,2013-03-26 08:55:00,
2013-03-26 04:01:00,36.4,19.5,30.40,NNW,339,0.0,0.0,50,0.00,,,0.00,0,Wunderground v.1.15,2013-03-26 09:01:00,
2013-03-26 04:02:00,36.3,19.9,30.40,NNW,339,0.0,0.0,51,0.00,,,0.00,0,Wunderground v.1.15,2013-03-26 09:02:00,
2013-03-26 04:03:00,36.2,20.2,30.40,NNW,339,0.0,0.0,52,0.00,,,0.00,0,Wunderground v.1.15,2013-03-26 09:03:00,
2013-03-26 04:04:00,36.1,20.2,30.40,NNW,339,0.0,0.0,52,0.00,,,0.00,0,Wunderground v.1.15,2013-03-26 09:04:00,
2013-03-26 04:10:00,35.9,19.0,30.39,NNW,339,0.0,1.0,50,0.00,,,0.00,0,Wunderground v.1.15,2013-03-26 09:10:00,
2013-03-26 04:11:00,35.9,19.0,30.39,NNW,339,0.0,1.0,50,0.00,,,0.00,0,Wunderground v.1.15,2013-03-26 09:11:00,
2013-03-26 04:12:00,35.9,18.6,30.39,NNW,339,0.0,1.0,49,0.00,,,0.00,0,Wunderground v.1.15,2013-03-26 09:12:00,
2013-03-26 04:14:00,36.1,18.8,30.39,NNW,339,0.0,1.0,49,0.00,,,0.00,0,Wunderground v.1.15,2013-03-26 09:14:00,
2013-03-26 04:17:00,36.2,18.4,30.39,NNW,341,1.0,3.0,48,0.00,,,0.00,0,Wunderground v.1.15,2013-03-26 09:17:00,
2013-03-26 04:18:00,36.3,18.5,30.39,NNW,341,1.0,3.0,48,0.00,,,0.00,0,Wunderground v.1.15,2013-03-26 09:18:00,
2013-03-26 04:22:00,36.4,18.6,30.39,NNW,341,1.0,2.0,48,0.00,,,0.00,0,Wunderground v.1.15,2013-03-26 09:22:00,
2013-03-26 04:23:00,36.4,18.1,30.39,NNW,341,1.0,2.0,47,0.00,,,0.00,0,Wunderground v.1.15,2013-03-26 09:23:00,
2013-03-26 04:24:00,36.4,18.6,30.39,NNW,341,0.0,2.0,48,0.00,,,0.00,0,Wunderground v.1.15,2013-03-26 09:24:00,
2013-03-26 04:25:00,36.5,18.6,30.39,NNW,341,0.0,2.0,48,0.00,,,0.00,0,Wunderground v.1.15,2013-03-26 09:25:00,
2013-03-26 04:27:00,36.5,18.2,30.40,NNW,341,0.0,2.0,47,0.00,,,0.00,0,Wunderground v.1.15,2013-03-26 09:27:00,
2013-03-26 04:29:00,36.6,18.2,30.40,NNW,341,0.0,2.0,47,0.00,,,0.00,0,Wunderground v.1.15,2013-03-26 09:29:00,
2013-03-26 04:31:00,36.6,18.2,30.40,NNW,341,0.0,0.0,47,0.00,,,0.00,0,Wunderground v.1.15,2013-03-26 09:31:00,
2013-03-26 04:34:00,36.6,19.2,30.40,NNW,341,0.0,0.0,49,0.00,,,0.00,0,Wunderground v.1.15,2013-03-26 09:34:00,
2013-03-26 04:35:00,36.6,19.2,30.40,NNW,341,0.0,0.0,49,0.00,,,0.00,0,Wunderground v.1.15,2013-03-26 09:35:00,
2013-03-26 04:37:00,36.5,18.6,30.40,NNW,341,0.0,0.0,48,0.00,,,0.00,0,Wunderground v.1.15,2013-03-26 09:37:00,
2013-03-26 04:40:00,36.5,18.6,30.40,NNW,341,0.0,2.0,48,0.00,,,0.00,0,Wunderground v.1.15,2013-03-26 09:40:00,
2013-03-26 04:42:00,36.5,18.2,30.40,NNW,341,0.0,0.0,47,0.00,,,0.00,0,Wunderground v.1.15,2013-03-26 09:42:00,
2013-03-26 04:44:00,36.4,18.1,30.40,NNW,341,0.0,0.0,47,0.00,,,0.00,0,Wunderground v.1.15,2013-03-26 09:44:00,
2013-03-26 04:50:00,36.4,18.1,30.40,NNW,341,0.0,0.0,47,0.00,,,0.00,0,Wunderground v.1.15,2013-03-26 09:50:00,
2013-03-26 04:52:00,36.5,18.2,30.40,NNW,341,0.0,0.0,47,0.00,,,0.00,0,Wunderground v.1.15,2013-03-26 09:52:00,
2013-03-26 04:54:00,36.5,18.2,30.40,NNW,341,0.0,0.0,47,0.00,,,0.00,0,Wunderground v.1.15,2013-03-26 09:54:00,
2013-03-26 04:55:00,36.6,17.7,30.40,NNW,341,0.0,0.0,46,0.00,,,0.00,0,Wunderground v.1.15,2013-03-26 09:55:00,
2013-03-26 04:58:00,36.6,17.7,30.40,NNW,341,0.0,0.0,46,0.00,,,0.00,0,Wunderground v.1.15,2013-03-26 09:58:00,
2013-03-26 05:01:00,36.6,17.7,30.41,NNW,341,0.0,0.0,46,0.00,,,0.00,0,Wunderground v.1.15,2013-03-26 10:01:00,
2013-03-26 05:02:00,36.6,17.7,30.40,NNW,341,0.0,1.0,46,0.00,,,0.00,0,Wunderground v.1.15,2013-03-26 10:02:00,
2013-03-26 05:03:00,36.6,17.7,30.40,NNW,341,0.0,1.0,46,0.00,,,0.00,0,Wunderground v.1.15,2013-03-26 10:03:00,
2013-03-26 05:09:00,36.5,18.2,30.41,NNW,343,1.0,1.0,47,0.00,,,0.00,0,Wunderground v.1.15,2013-03-26 10:09:00,
2013-03-26 05:10:00,36.5,18.2,30.41,NNW,343,1.0,1.0,47,0.00,,,0.00,0,Wunderground v.1.15,2013-03-26 10:10:00,
2013-03-26 05:12:00,36.4,18.1,30.41,NNW,343,0.0,1.0,47,0.00,,,0.00,0,Wunderground v.1.15,2013-03-26 10:12:00,
2013-03-26 05:15:00,36.3,18.0,30.41,NNW,343,0.0,1.0,47,0.00,,,0.00,0,Wunderground v.1.15,2013-03-26 10:15:00,
2013-03-26 05:16:00,36.3,18.0,30.41,NNW,343,0.0,1.0,47,0.00,,,0.00,0,Wunderground v.1.15,2013-03-26 10:16:00,
2013-03-26 05:19:00,36.2,17.9,30.40,NNW,343,0.0,1.0,47,0.00,,,0.00,0,Wunderground v.1.15,2013-03-26 10:19:00,
2013-03-26 05:22:00,36.2,17.9,30.40,NNW,343,0.0,0.0,47,0.00,,,0.00,0,Wunderground v.1.15,2013-03-26 10:22:00,
2013-03-26 05:24:00,36.2,18.4,30.40,North,355,0.0,2.0,48,0.00,,,0.00,0,Wunderground v.1.15,2013-03-26 10:24:00,
2013-03-26 05:25:00,36.2,18.4,30.40,North,360,0.0,2.0,48,0.00,,,0.00,0,Wunderground v.1.15,2013-03-26 10:25:00,
2013-03-26 05:27:00,36.1,18.3,30.41,North,360,0.0,2.0,48,0.00,,,0.00,0,Wunderground v.1.15,2013-03-26 10:27:00,
2013-03-26 05:30:00,36.1,18.3,30.41,North,5,0.0,2.0,48,0.00,,,0.00,0,Wunderground v.1.15,2013-03-26 10:30:00,
2013-03-26 05:32:00,36.1,18.3,30.41,North,5,1.0,1.0,48,0.00,,,0.00,0,Wunderground v.1.15,2013-03-26 10:32:00,
2013-03-26 05:35:00,35.9,18.6,30.41,North,5,0.0,1.0,49,0.00,,,0.00,0,Wunderground v.1.15,2013-03-26 10:35:00,
2013-03-26 05:41:00,35.8,18.5,30.41,North,5,0.0,0.0,49,0.00,,,0.00,0,Wunderground v.1.15,2013-03-26 10:41:00,
2013-03-26 05:42:00,35.8,18.5,30.41,North,5,0.0,0.0,49,0.00,,,0.00,0,Wunderground v.1.15,2013-03-26 10:42:00,
2013-03-26 05:45:00,35.7,18.4,30.41,North,5,0.0,0.0,49,0.00,,,0.00,0,Wunderground v.1.15,2013-03-26 10:45:00,
2013-03-26 05:46:00,35.7,18.4,30.41,North,5,0.0,0.0,49,0.00,,,0.00,0,Wunderground v.1.15,2013-03-26 10:46:00,
2013-03-26 05:47:00,35.7,18.4,30.41,North,5,0.0,0.0,49,0.00,,,0.00,0,Wunderground v.1.15,2013-03-26 10:47:00,
2013-03-26 05:48:00,35.7,18.4,30.41,North,5,0.0,0.0,49,0.00,,,0.00,0,Wunderground v.1.15,2013-03-26 10:48:00,
2013-03-26 05:51:00,35.6,18.3,30.41,North,9,0.0,2.0,49,0.00,,,0.00,0,Wunderground v.1.15,2013-03-26 10:51:00,
2013-03-26 05:52:00,35.6,18.3,30.41,North,9,0.0,2.0,49,0.00,,,0.00,0,Wunderground v.1.15,2013-03-26 10:52:00,
2013-03-26 05:53:00,35.7,18.4,30.41,North,10,0.0,2.0,49,0.00,,,0.00,0,Wunderground v.1.15,2013-03-26 10:53:00,
2013-03-26 05:57:00,35.7,17.9,30.41,NNE,31,1.0,4.0,48,0.00,,,0.00,0,Wunderground v.1.15,2013-03-26 10:57:00,
2013-03-26 05:59:00,35.7,17.9,30.41,NNE,31,1.0,4.0,48,0.00,,,0.00,0,Wunderground v.1.15,2013-03-26 10:59:00,
2013-03-26 06:02:00,35.7,17.9,30.42,NNE,31,1.0,1.0,48,0.00,,,0.00,0,Wunderground v.1.15,2013-03-26 11:02:00,
2013-03-26 06:03:00,35.7,17.9,30.41,NNE,31,1.0,1.0,48,0.00,,,0.00,0,Wunderground v.1.15,2013-03-26 11:03:00,
2013-03-26 06:07:00,35.6,17.8,30.42,NNE,31,0.0,1.0,48,0.00,,,0.00,0,Wunderground v.1.15,2013-03-26 11:07:00,
2013-03-26 06:08:00,35.6,18.3,30.42,NNE,31,0.0,1.0,49,0.00,,,0.00,0,Wunderground v.1.15,2013-03-26 11:08:00,
2013-03-26 06:09:00,35.5,17.7,30.42,NNE,31,0.0,1.0,48,0.00,,,0.00,0,Wunderground v.1.15,2013-03-26 11:09:00,
2013-03-26 06:10:00,35.5,18.2,30.42,NNE,31,0.0,1.0,49,0.00,,,0.00,0,Wunderground v.1.15,2013-03-26 11:10:00,
2013-03-26 06:13:00,35.5,17.7,30.42,NNE,31,0.0,1.0,48,0.00,,,0.00,0,Wunderground v.1.15,2013-03-26 11:13:00,
2013-03-26 06:14:00,35.5,18.2,30.42,NNE,31,0.0,1.0,49,0.00,,,0.00,0,Wunderground v.1.15,2013-03-26 11:14:00,
2013-03-26 06:17:00,35.4,18.1,30.42,NNE,31,0.0,1.0,49,0.00,,,0.00,0,Wunderground v.1.15,2013-03-26 11:17:00,
2013-03-26 06:20:00,35.3,18.0,30.42,NNE,31,0.0,1.0,49,0.00,,,0.00,0,Wunderground v.1.15,2013-03-26 11:20:00,
2013-03-26 06:22:00,35.3,18.0,30.43,NNE,31,0.0,0.0,49,0.00,,,0.00,0,Wunderground v.1.15,2013-03-26 11:22:00,
2013-03-26 06:24:00,35.3,18.0,30.43,NNE,31,0.0,1.0,49,0.00,,,0.00,0,Wunderground v.1.15,2013-03-26 11:24:00,
2013-03-26 06:27:00,35.3,18.0,30.43,NNE,31,0.0,1.0,49,0.00,,,0.00,0,Wunderground v.1.15,2013-03-26 11:27:00,
2013-03-26 06:29:00,35.3,18.0,30.43,NNE,31,0.0,2.0,49,0.00,,,0.00,0,Wunderground v.1.15,2013-03-26 11:29:00,
2013-03-26 06:32:00,35.2,17.9,30.43,NNE,31,0.0,0.0,49,0.00,,,0.00,0,Wunderground v.1.15,2013-03-26 11:32:00,
2013-03-26 06:33:00,35.2,17.9,30.43,NNE,31,0.0,0.0,49,0.00,,,0.00,0,Wunderground v.1.15,2013-03-26 11:33:00,
2013-03-26 06:35:00,35.1,17.8,30.43,NNE,31,0.0,0.0,49,0.00,,,0.00,0,Wunderground v.1.15,2013-03-26 11:35:00,
2013-03-26 06:38:00,35.0,17.7,30.43,NNE,31,0.0,0.0,49,0.00,,,0.00,0,Wunderground v.1.15,2013-03-26 11:38:00,
2013-03-26 06:40:00,34.9,18.1,30.43,NNE,31,0.0,0.0,50,0.00,,,0.00,0,Wunderground v.1.15,2013-03-26 11:40:00,
2013-03-26 06:41:00,34.9,18.1,30.43,NNE,31,0.0,0.0,50,0.00,,,0.00,0,Wunderground v.1.15,2013-03-26 11:41:00,
2013-03-26 06:43:00,34.8,18.0,30.43,NNE,31,0.0,0.0,50,0.00,,,0.00,0,Wunderground v.1.15,2013-03-26 11:43:00,
2013-03-26 06:47:00,34.8,18.0,30.43,NE,34,0.0,0.0,50,0.00,,,0.00,0,Wunderground v.1.15,2013-03-26 11:47:00,
2013-03-26 06:48:00,34.7,17.9,30.43,NE,34,0.0,0.0,50,0.00,,,0.00,0,Wunderground v.1.15,2013-03-26 11:48:00,
2013-03-26 06:49:00,34.7,17.9,30.44,NE,34,0.0,0.0,50,0.00,,,0.00,0,Wunderground v.1.15,2013-03-26 11:49:00,
2013-03-26 06:53:00,34.7,17.9,30.44,NE,34,0.0,0.0,50,0.00,,,0.00,0,Wunderground v.1.15,2013-03-26 11:53:00,
2013-03-26 06:54:00,34.7,17.9,30.44,NE,34,0.0,0.0,50,0.00,,,0.00,0,Wunderground v.1.15,2013-03-26 11:54:00,
2013-03-26 06:57:00,34.7,17.9,30.44,NE,36,0.0,1.0,50,0.00,,,0.00,0,Wunderground v.1.15,2013-03-26 11:57:00,
2013-03-26 06:58:00,34.8,18.0,30.44,NE,36,0.0,1.0,50,0.00,,,0.00,0,Wunderground v.1.15,2013-03-26 11:58:00,
2013-03-26 07:01:00,34.7,17.9,30.45,NE,36,0.0,0.0,50,0.00,,,0.00,0,Wunderground v.1.15,2013-03-26 12:01:00,
2013-03-26 07:02:00,34.7,17.9,30.45,NE,36,0.0,0.0,50,0.00,,,0.00,0,Wunderground v.1.15,2013-03-26 12:02:00,
2013-03-26 07:06:00,34.7,17.9,30.45,NE,36,0.0,0.0,50,0.00,,,0.00,0,Wunderground v.1.15,2013-03-26 12:06:00,
2013-03-26 07:07:00,34.7,17.9,30.45,NE,36,0.0,0.0,50,0.00,,,0.00,0,Wunderground v.1.15,2013-03-26 12:07:00,
2013-03-26 07:08:00,34.6,17.8,30.45,NE,36,0.0,0.0,50,0.00,,,0.00,0,Wunderground v.1.15,2013-03-26 12:08:00,
2013-03-26 07:09:00,34.6,17.8,30.45,NE,36,0.0,0.0,50,0.00,,,0.00,0,Wunderground v.1.15,2013-03-26 12:09:00,
2013-03-26 07:12:00,34.5,18.2,30.45,NE,36,0.0,0.0,51,0.00,,,0.00,0,Wunderground v.1.15,2013-03-26 12:12:00,
2013-03-26 07:14:00,34.4,18.1,30.45,NE,36,0.0,0.0,51,0.00,,,0.00,0,Wunderground v.1.15,2013-03-26 12:14:00,
2013-03-26 07:15:00,34.4,18.1,30.45,NE,36,0.0,0.0,51,0.00,,,0.00,0,Wunderground v.1.15,2013-03-26 12:15:00,
2013-03-26 07:18:00,34.3,18.0,30.45,NE,36,0.0,0.0,51,0.00,,,0.00,0,Wunderground v.1.15,2013-03-26 12:18:00,
2013-03-26 07:19:00,34.3,18.0,30.45,NE,36,0.0,0.0,51,0.00,,,0.00,0,Wunderground v.1.15,2013-03-26 12:19:00,
2013-03-26 07:20:00,34.3,18.0,30.46,NE,36,0.0,0.0,51,0.00,,,0.00,5,Wunderground v.1.15,2013-03-26 12:20:00,
2013-03-26 07:21:00,34.3,18.5,30.46,NE,36,0.0,0.0,52,0.00,,,0.00,5,Wunderground v.1.15,2013-03-26 12:21:00,
2013-03-26 07:23:00,34.2,18.4,30.46,NE,36,0.0,0.0,52,0.00,,,0.00,5,Wunderground v.1.15,2013-03-26 12:23:00,
2013-03-26 07:26:00,34.2,18.4,30.46,NE,36,0.0,0.0,52,0.00,,,0.00,7,Wunderground v.1.15,2013-03-26 12:26:00,
2013-03-26 07:27:00,34.1,18.3,30.46,NE,36,0.0,0.0,52,0.00,,,0.00,9,Wunderground v.1.15,2013-03-26 12:27:00,
2013-03-26 07:30:00,34.2,18.4,30.46,NE,36,0.0,0.0,52,0.00,,,0.00,11,Wunderground v.1.15,2013-03-26 12:30:00,
2013-03-26 07:33:00,34.3,18.5,30.46,NE,36,0.0,0.0,52,0.00,,,0.00,12,Wunderground v.1.15,2013-03-26 12:33:00,
2013-03-26 07:35:00,34.3,18.5,30.46,NE,36,0.0,0.0,52,0.00,,,0.00,16,Wunderground v.1.15,2013-03-26 12:35:00,
2013-03-26 07:36:00,34.3,18.5,30.46,NE,36,0.0,0.0,52,0.00,,,0.00,16,Wunderground v.1.15,2013-03-26 12:36:00,
2013-03-26 07:40:00,34.4,18.6,30.47,NE,36,0.0,0.0,52,0.00,,,0.00,19,Wunderground v.1.15,2013-03-26 12:40:00,
2013-03-26 07:42:00,34.5,18.7,30.47,NE,36,0.0,0.0,52,0.00,,,0.00,21,Wunderground v.1.15,2013-03-26 12:42:00,
2013-03-26 07:43:00,34.5,18.2,30.47,NE,36,0.0,0.0,51,0.00,,,0.00,23,Wunderground v.1.15,2013-03-26 12:43:00,
2013-03-26 07:45:00,34.6,18.3,30.47,NE,36,0.0,0.0,51,0.00,,,0.00,26,Wunderground v.1.15,2013-03-26 12:45:00,
2013-03-26 07:47:00,34.7,18.9,30.47,NE,36,0.0,0.0,52,0.00,,,0.00,30,Wunderground v.1.15,2013-03-26 12:47:00,
2013-03-26 07:50:00,34.8,18.9,30.47,NE,36,0.0,0.0,52,0.00,,,0.00,35,Wunderground v.1.15,2013-03-26 12:50:00,
2013-03-26 07:51:00,34.8,18.9,30.47,NE,36,0.0,0.0,52,0.00,,,0.00,37,Wunderground v.1.15,2013-03-26 12:51:00,
2013-03-26 07:52:00,34.8,18.9,30.47,NE,36,0.0,0.0,52,0.00,,,0.00,37,Wunderground v.1.15,2013-03-26 12:52:00,
2013-03-26 07:57:00,35.0,18.7,30.47,NE,38,0.0,2.0,51,0.00,,,0.00,49,Wunderground v.1.15,2013-03-26 12:57:00,
2013-03-26 08:02:00,35.2,18.4,30.47,NE,38,1.0,1.0,50,0.00,,,0.00,63,Wunderground v.1.15,2013-03-26 13:02:00,
2013-03-26 08:03:00,35.2,18.4,30.47,NE,38,1.0,1.0,50,0.00,,,0.00,65,Wunderground v.1.15,2013-03-26 13:03:00,
2013-03-26 08:04:00,35.3,18.5,30.47,NE,38,1.0,1.0,50,0.00,,,0.00,70,Wunderground v.1.15,2013-03-26 13:04:00,
2013-03-26 08:05:00,35.4,18.1,30.47,NE,38,1.0,3.0,49,0.00,,,0.00,74,Wunderground v.1.15,2013-03-26 13:05:00,
2013-03-26 08:09:00,35.6,18.3,30.48,NE,43,2.0,3.0,49,0.00,,,0.00,88,Wunderground v.1.15,2013-03-26 13:09:00,
2013-03-26 08:10:00,35.7,18.4,30.48,NE,46,2.0,3.0,49,0.00,,,0.00,90,Wunderground v.1.15,2013-03-26 13:10:00,
2013-03-26 08:14:00,35.9,18.1,30.48,NE,46,2.0,3.0,48,0.00,,,0.00,102,Wunderground v.1.15,2013-03-26 13:14:00,
2013-03-26 08:17:00,36.0,17.7,30.48,NE,46,2.0,3.0,47,0.00,,,0.00,114,Wunderground v.1.15,2013-03-26 13:17:00,
2013-03-26 08:20:00,36.1,17.8,30.48,NE,52,2.0,3.0,47,0.00,,,0.00,127,Wunderground v.1.15,2013-03-26 13:20:00,
2013-03-26 08:21:00,36.1,17.8,30.48,ENE,74,2.0,4.0,47,0.00,,,0.00,127,Wunderground v.1.15,2013-03-26 13:21:00,
2013-03-26 08:27:00,36.4,17.6,30.48,NE,55,2.0,5.0,46,0.00,,,0.00,146,Wunderground v.1.15,2013-03-26 13:27:00,
2013-03-26 08:28:00,36.5,17.7,30.48,NE,55,3.0,5.0,46,0.00,,,0.00,151,Wunderground v.1.15,2013-03-26 13:28:00,
2013-03-26 08:30:00,36.6,17.7,30.48,NE,53,3.0,5.0,46,0.00,,,0.00,160,Wunderground v.1.15,2013-03-26 13:30:00,
2013-03-26 08:33:00,36.8,17.9,30.49,East,81,3.0,5.0,46,0.00,,,0.00,169,Wunderground v.1.15,2013-03-26 13:33:00,
2013-03-26 08:35:00,36.9,17.5,30.49,East,84,3.0,5.0,45,0.00,,,0.00,176,Wunderground v.1.15,2013-03-26 13:35:00,
2013-03-26 08:37:00,37.0,18.1,30.49,East,82,3.0,5.0,46,0.00,,,0.00,179,Wunderground v.1.15,2013-03-26 13:37:00,
2013-03-26 08:38:00,37.1,17.7,30.49,East,86,3.0,5.0,45,0.00,,,0.00,183,Wunderground v.1.15,2013-03-26 13:38:00,
2013-03-26 08:40:00,37.2,17.8,30.49,East,92,3.0,5.0,45,0.00,,,0.00,192,Wunderground v.1.15,2013-03-26 13:40:00,
2013-03-26 08:42:00,37.2,17.3,30.49,East,86,4.0,7.0,44,0.00,,,0.00,197,Wunderground v.1.15,2013-03-26 13:42:00,
2013-03-26 08:44:00,37.2,17.3,30.49,ENE,67,4.0,7.0,44,0.00,,,0.00,202,Wunderground v.1.15,2013-03-26 13:44:00,
2013-03-26 08:45:00,37.1,17.2,30.49,NE,55,4.0,7.0,44,0.00,,,0.00,209,Wunderground v.1.15,2013-03-26 13:45:00,
2013-03-26 08:47:00,37.1,16.6,30.50,East,82,4.0,7.0,43,0.00,,,0.00,214,Wunderground v.1.15,2013-03-26 13:47:00,
2013-03-26 08:50:00,37.1,17.2,30.50,ENE,69,5.0,7.0,44,0.00,,,0.00,227,Wunderground v.1.15,2013-03-26 13:50:00,
2013-03-26 08:52:00,37.1,17.2,30.50,ENE,72,5.0,5.0,44,0.00,,,0.00,232,Wunderground v.1.15,2013-03-26 13:52:00,
2013-03-26 08:53:00,37.2,17.3,30.50,ENE,72,4.0,5.0,44,0.00,,,0.00,234,Wunderground v.1.15,2013-03-26 13:53:00,
2013-03-26 08:54:00,37.3,16.8,30.50,ENE,69,4.0,5.0,43,0.00,,,0.00,239,Wunderground v.1.15,2013-03-26 13:54:00,
2013-03-26 08:56:00,37.4,16.9,30.50,ENE,70,4.0,5.0,43,0.00,,,0.00,244,Wunderground v.1.15,2013-03-26 13:56:00,
2013-03-26 09:01:00,37.7,17.7,30.50,East,95,3.0,3.0,44,0.00,,,0.00,262,Wunderground v.1.15,2013-03-26 14:01:00,
2013-03-26 09:02:00,37.8,17.8,30.50,East,95,2.0,3.0,44,0.00,,,0.00,265,Wunderground v.1.15,2013-03-26 14:02:00,
2013-03-26 09:05:00,38.1,17.5,30.50,ENE,72,3.0,7.0,43,0.00,,,0.00,276,Wunderground v.1.15,2013-03-26 14:05:00,
2013-03-26 09:07:00,38.1,17.5,30.50,ENE,74,3.0,7.0,43,0.00,,,0.00,283,Wunderground v.1.15,2013-03-26 14:07:00,
2013-03-26 09:10:00,38.1,17.5,30.50,ENE,78,3.0,7.0,43,0.00,,,0.00,297,Wunderground v.1.15,2013-03-26 14:10:00,
2013-03-26 09:13:00,38.3,17.7,30.50,ENE,69,4.0,4.0,43,0.00,,,0.00,304,Wunderground v.1.15,2013-03-26 14:13:00,
2013-03-26 09:14:00,38.4,17.8,30.50,ENE,61,4.0,4.0,43,0.00,,,0.00,311,Wunderground v.1.15,2013-03-26 14:14:00,
2013-03-26 09:15:00,38.5,17.4,30.50,NE,48,3.0,4.0,42,0.00,,,0.00,315,Wunderground v.1.15,2013-03-26 14:15:00,
2013-03-26 09:18:00,38.6,17.5,30.50,NE,49,3.0,4.0,42,0.00,,,0.00,327,Wunderground v.1.15,2013-03-26 14:18:00,
2013-03-26 09:19:00,38.7,17.5,30.50,NE,41,3.0,4.0,42,0.00,,,0.00,330,Wunderground v.1.15,2013-03-26 14:19:00,
2013-03-26 09:20:00,38.7,17.5,30.50,NE,45,3.0,4.0,42,0.00,,,0.00,334,Wunderground v.1.15,2013-03-26 14:20:00,
2013-03-26 09:25:00,39.0,17.3,30.51,NE,49,3.0,5.0,41,0.00,,,0.00,352,Wunderground v.1.15,2013-03-26 14:25:00,
2013-03-26 09:26:00,39.0,17.3,30.51,ENE,67,3.0,5.0,41,0.00,,,0.00,355,Wunderground v.1.15,2013-03-26 14:26:00,
2013-03-26 09:29:00,39.1,16.8,30.51,ENE,77,3.0,5.0,40,0.00,,,0.00,364,Wunderground v.1.15,2013-03-26 14:29:00,
2013-03-26 09:30:00,39.1,17.4,30.51,East,92,4.0,6.0,41,0.00,,,0.00,371,Wunderground v.1.15,2013-03-26 14:30:00,
2013-03-26 09:34:00,39.3,17.5,30.51,East,95,4.0,9.0,41,0.00,,,0.00,381,Wunderground v.1.15,2013-03-26 14:34:00,
2013-03-26 09:35:00,39.3,17.5,30.51,SE,128,4.0,9.0,41,0.00,,,0.00,388,Wunderground v.1.15,2013-03-26 14:35:00,
2013-03-26 09:37:00,39.2,17.4,30.51,ESE,115,5.0,9.0,41,0.00,,,0.00,392,Wunderground v.1.15,2013-03-26 14:37:00,
2013-03-26 09:40:00,39.2,16.9,30.51,East,90,5.0,-999.0,40,0.00,,,0.00,397,Wunderground v.1.15,2013-03-26 14:40:00,
2013-03-26 09:45:00,39.4,17.6,30.51,ESE,113,4.0,-999.0,41,0.00,,,0.00,413,Wunderground v.1.15,2013-03-26 14:45:00,
2013-03-26 09:55:00,39.6,17.2,30.51,East,101,3.0,3.0,40,0.00,,,0.00,457,Wunderground v.1.15,2013-03-26 14:55:00,
2013-03-26 09:56:00,39.8,17.4,30.51,ESE,104,3.0,5.0,40,0.00,,,0.00,461,Wunderground v.1.15,2013-03-26 14:56:00,
2013-03-26 09:57:00,39.8,17.4,30.51,East,100,2.0,5.0,40,0.00,,,0.00,461,Wunderground v.1.15,2013-03-26 14:57:00,
2013-03-26 10:02:00,40.0,17.0,30.51,ENE,72,3.0,3.0,39,0.00,,,0.00,480,Wunderground v.1.15,2013-03-26 15:02:00,
2013-03-26 10:03:00,40.1,17.1,30.51,ENE,72,3.0,3.0,39,0.00,,,0.00,483,Wunderground v.1.15,2013-03-26 15:03:00,
2013-03-26 10:05:00,40.2,17.2,30.51,ENE,62,3.0,4.0,39,0.00,,,0.00,494,Wunderground v.1.15,2013-03-26 15:05:00,
2013-03-26 10:08:00,40.3,17.3,30.51,North,351,2.0,4.0,39,0.00,,,0.00,501,Wunderground v.1.15,2013-03-26 15:08:00,
2013-03-26 10:09:00,40.3,17.3,30.51,North,351,2.0,4.0,39,0.00,,,0.00,503,Wunderground v.1.15,2013-03-26 15:09:00,
2013-03-26 10:12:00,40.7,17.6,30.51,North,11,1.0,2.0,39,0.00,,,0.00,512,Wunderground v.1.15,2013-03-26 15:12:00,
2013-03-26 10:13:00,40.9,17.8,30.51,NNE,24,1.0,2.0,39,0.00,,,0.00,519,Wunderground v.1.15,2013-03-26 15:13:00,
2013-03-26 10:14:00,41.0,17.3,30.51,NNE,24,1.0,2.0,38,0.00,,,0.00,522,Wunderground v.1.15,2013-03-26 15:14:00,
2013-03-26 10:18:00,41.1,16.8,30.51,East,95,2.0,6.0,37,0.00,,,0.00,533,Wunderground v.1.15,2013-03-26 15:18:00,
2013-03-26 10:19:00,41.0,16.7,30.51,East,92,2.0,6.0,37,0.00,,,0.00,538,Wunderground v.1.15,2013-03-26 15:19:00,
2013-03-26 10:20:00,40.8,16.5,30.51,East,97,2.0,2.0,37,0.00,,,0.00,541,Wunderground v.1.15,2013-03-26 15:20:00,
2013-03-26 10:24:00,41.1,17.4,30.51,East,97,2.0,2.0,38,0.00,,,0.00,554,Wunderground v.1.15,2013-03-26 15:24:00,
2013-03-26 10:25:00,41.2,17.5,30.51,East,97,2.0,5.0,38,0.00,,,0.00,557,Wunderground v.1.15,2013-03-26 15:25:00,
2013-03-26 10:28:00,41.4,17.7,30.51,ENE,66,2.0,6.0,38,0.00,,,0.00,564,Wunderground v.1.15,2013-03-26 15:28:00,
2013-03-26 10:30:00,41.4,17.0,30.51,ENE,70,2.0,2.0,37,0.00,,,0.00,573,Wunderground v.1.15,2013-03-26 15:30:00,
2013-03-26 10:32:00,41.4,17.7,30.51,East,99,2.0,6.0,38,0.00,,,0.00,578,Wunderground v.1.15,2013-03-26 15:32:00,
2013-03-26 10:34:00,41.5,17.7,30.51,ESE,122,3.0,6.0,38,0.00,,,0.00,582,Wunderground v.1.15,2013-03-26 15:34:00,
2013-03-26 10:35:00,41.6,17.2,30.51,SE,134,4.0,6.0,37,0.00,,,0.00,587,Wunderground v.1.15,2013-03-26 15:35:00,
2013-03-26 10:39:00,41.7,17.3,30.51,SE,132,4.0,6.0,37,0.00,,,0.00,598,Wunderground v.1.15,2013-03-26 15:39:00,
2013-03-26 10:41:00,41.8,17.4,30.51,ESE,113,4.0,5.0,37,0.00,,,0.00,605,Wunderground v.1.15,2013-03-26 15:41:00,
2013-03-26 10:42:00,41.8,17.4,30.51,NE,51,4.0,5.0,37,0.00,,,0.00,608,Wunderground v.1.15,2013-03-26 15:42:00,
2013-03-26 10:45:00,41.9,16.9,30.51,East,79,3.0,7.0,36,0.00,,,0.00,619,Wunderground v.1.15,2013-03-26 15:45:00,
2013-03-26 10:48:00,41.9,16.9,30.51,ESE,106,3.0,7.0,36,0.00,,,0.00,626,Wunderground v.1.15,2013-03-26 15:48:00,
2013-03-26 10:50:00,41.8,16.8,30.51,ESE,111,4.0,7.0,36,0.00,,,0.00,635,Wunderground v.1.15,2013-03-26 15:50:00,
2013-03-26 10:53:00,41.8,16.8,30.51,SE,134,4.0,7.0,36,0.00,,,0.00,642,Wunderground v.1.15,2013-03-26 15:53:00,
2013-03-26 10:54:00,41.8,16.8,30.51,SSE,165,4.0,7.0,36,0.00,,,0.00,645,Wunderground v.1.15,2013-03-26 15:54:00,
2013-03-26 10:56:00,42.0,17.6,30.51,SSE,161,4.0,7.0,37,0.00,,,0.00,649,Wunderground v.1.15,2013-03-26 15:56:00,
2013-03-26 10:59:00,42.4,17.3,30.51,ESE,123,4.0,7.0,36,0.00,,,0.00,659,Wunderground v.1.15,2013-03-26 15:59:00,
2013-03-26 11:00:00,42.5,17.4,30.51,ESE,123,3.0,3.0,36,0.00,,,0.00,661,Wunderground v.1.15,2013-03-26 16:00:00,
2013-03-26 11:01:00,42.5,17.4,30.51,SE,128,3.0,3.0,36,0.00,,,0.00,663,Wunderground v.1.15,2013-03-26 16:01:00,
2013-03-26 11:03:00,42.7,17.6,30.50,SE,132,3.0,3.0,36,0.00,,,0.00,670,Wunderground v.1.15,2013-03-26 16:03:00,
2013-03-26 11:07:00,42.7,16.9,30.50,ESE,105,3.0,3.0,35,0.00,,,0.00,680,Wunderground v.1.15,2013-03-26 16:07:00,
2013-03-26 11:08:00,42.7,16.9,30.50,SE,124,3.0,4.0,35,0.00,,,0.00,680,Wunderground v.1.15,2013-03-26 16:08:00,
2013-03-26 11:09:00,42.7,16.9,30.50,ESE,119,3.0,4.0,35,0.00,,,0.00,682,Wunderground v.1.15,2013-03-26 16:09:00,
2013-03-26 11:13:00,42.8,17.0,30.50,ESE,119,3.0,3.0,35,0.00,,,0.00,694,Wunderground v.1.15,2013-03-26 16:13:00,
2013-03-26 11:14:00,42.9,17.1,30.50,ESE,119,3.0,3.0,35,0.00,,,0.00,698,Wunderground v.1.15,2013-03-26 16:14:00,
2013-03-26 11:18:00,43.3,16.8,30.50,ESE,119,1.0,3.0,34,0.00,,,0.00,708,Wunderground v.1.15,2013-03-26 16:18:00,
2013-03-26 11:20:00,43.5,16.3,30.50,NE,42,1.0,5.0,33,0.00,,,0.00,715,Wunderground v.1.15,2013-03-26 16:20:00,
2013-03-26 11:22:00,43.5,16.3,30.50,NNW,336,1.0,5.0,33,0.00,,,0.00,717,Wunderground v.1.15,2013-03-26 16:22:00,
2013-03-26 11:24:00,43.4,16.2,30.50,NNW,348,2.0,5.0,33,0.00,,,0.00,722,Wunderground v.1.15,2013-03-26 16:24:00,
2013-03-26 11:28:00,43.7,17.1,30.50,NNE,30,2.0,5.0,34,0.00,,,0.00,729,Wunderground v.1.15,2013-03-26 16:28:00,
2013-03-26 11:34:00,43.9,16.6,30.50,North,360,3.0,6.0,33,0.00,,,0.00,745,Wunderground v.1.15,2013-03-26 16:34:00,
2013-03-26 11:35:00,43.8,16.5,30.50,NNE,13,3.0,6.0,33,0.00,,,0.00,749,Wunderground v.1.15,2013-03-26 16:35:00,
2013-03-26 11:37:00,43.9,17.3,30.50,North,11,3.0,6.0,34,0.00,,,0.00,751,Wunderground v.1.15,2013-03-26 16:37:00,
2013-03-26 11:39:00,44.2,16.9,30.50,NW,317,4.0,6.0,33,0.00,,,0.00,756,Wunderground v.1.15,2013-03-26 16:39:00,
2013-03-26 11:42:00,44.6,17.2,30.49,NNW,343,3.0,6.0,33,0.00,,,0.00,763,Wunderground v.1.15,2013-03-26 16:42:00,
2013-03-26 11:43:00,44.6,16.5,30.49,NNW,345,3.0,6.0,32,0.00,,,0.00,765,Wunderground v.1.15,2013-03-26 16:43:00,
2013-03-26 11:48:00,44.3,17.0,30.49,North,9,3.0,6.0,33,0.00,,,0.00,775,Wunderground v.1.15,2013-03-26 16:48:00,
2013-03-26 11:51:00,44.3,17.0,30.49,NW,305,4.0,5.0,33,0.00,,,0.00,782,Wunderground v.1.15,2013-03-26 16:51:00,
2013-03-26 11:52:00,44.3,17.7,30.49,NW,315,4.0,5.0,34,0.00,,,0.00,784,Wunderground v.1.15,2013-03-26 16:52:00,
2013-03-26 11:55:00,44.5,16.4,30.49,WNW,282,4.0,5.0,32,0.00,,,0.00,793,Wunderground v.1.15,2013-03-26 16:55:00,
2013-03-26 11:58:00,44.5,16.4,30.48,WNW,282,3.0,5.0,32,0.00,,,0.00,795,Wunderground v.1.15,2013-03-26 16:58:00,
2013-03-26 12:01:00,44.6,16.5,30.48,WSW,254,3.0,3.0,32,0.00,,,0.00,803,Wunderground v.1.15,2013-03-26 17:01:00,
2013-03-26 12:02:00,44.8,17.4,30.48,SW,215,2.0,3.0,33,0.00,,,0.00,803,Wunderground v.1.15,2013-03-26 17:02:00,
2013-03-26 12:04:00,45.1,17.0,30.48,ESE,103,2.0,3.0,32,0.00,,,0.00,809,Wunderground v.1.15,2013-03-26 17:04:00,
2013-03-26 12:06:00,45.3,16.4,30.48,North,5,2.0,6.0,31,0.00,,,0.00,810,Wunderground v.1.15,2013-03-26 17:06:00,
2013-03-26 12:07:00,45.4,16.5,30.48,NE,46,2.0,6.0,31,0.00,,,0.00,814,Wunderground v.1.15,2013-03-26 17:07:00,
2013-03-26 12:09:00,45.3,15.6,30.48,ESE,103,3.0,7.0,30,0.00,,,0.00,817,Wunderground v.1.15,2013-03-26 17:09:00,
2013-03-26 12:12:00,45.1,15.5,30.47,ESE,103,3.0,3.0,30,0.00,,,0.00,823,Wunderground v.1.15,2013-03-26 17:12:00,
2013-03-26 12:15:00,45.4,16.5,30.47,NW,320,2.0,4.0,31,0.00,,,0.00,826,Wunderground v.1.15,2013-03-26 17:15:00,
2013-03-26 12:17:00,45.6,16.7,30.47,NW,307,3.0,5.0,31,0.00,,,0.00,831,Wunderground v.1.15,2013-03-26 17:17:00,
2013-03-26 12:19:00,45.9,16.2,30.47,WNW,303,3.0,5.0,30,0.00,,,0.00,835,Wunderground v.1.15,2013-03-26 17:19:00,
2013-03-26 12:22:00,46.1,16.3,30.47,NNW,344,3.0,3.0,30,0.00,,,0.00,837,Wunderground v.1.15,2013-03-26 17:22:00,
2013-03-26 12:23:00,46.1,16.3,30.47,North,5,3.0,3.0,30,0.00,,,0.00,838,Wunderground v.1.15,2013-03-26 17:23:00,
2013-03-26 12:25:00,46.3,16.5,30.47,NE,55,3.0,3.0,30,0.00,,,0.00,844,Wunderground v.1.15,2013-03-26 17:25:00,
2013-03-26 12:27:00,46.5,15.9,30.47,ENE,63,2.0,3.0,29,0.00,,,0.00,842,Wunderground v.1.15,2013-03-26 17:27:00,
2013-03-26 12:29:00,46.8,16.2,30.47,NE,42,2.0,7.0,29,0.00,,,0.00,847,Wunderground v.1.15,2013-03-26 17:29:00,
2013-03-26 12:30:00,46.5,15.9,30.47,ENE,58,2.0,9.0,29,0.00,,,0.00,849,Wunderground v.1.15,2013-03-26 17:30:00,
2013-03-26 12:32:00,46.3,15.7,30.47,NE,36,3.0,5.0,29,0.00,,,0.00,853,Wunderground v.1.15,2013-03-26 17:32:00,
2013-03-26 12:34:00,46.0,16.3,30.47,NNE,19,3.0,8.0,30,0.00,,,0.00,854,Wunderground v.1.15,2013-03-26 17:34:00,
2013-03-26 12:37:00,46.2,16.4,30.47,ENE,71,5.0,8.0,30,0.00,,,0.00,856,Wunderground v.1.15,2013-03-26 17:37:00,
2013-03-26 12:40:00,46.0,15.5,30.47,East,96,5.0,8.0,29,0.00,,,0.00,861,Wunderground v.1.15,2013-03-26 17:40:00,
2013-03-26 12:42:00,46.1,16.3,30.47,East,101,5.0,5.0,30,0.00,,,0.00,865,Wunderground v.1.15,2013-03-26 17:42:00,
2013-03-26 12:43:00,46.2,16.4,30.47,ESE,103,5.0,5.0,30,0.00,,,0.00,865,Wunderground v.1.15,2013-03-26 17:43:00,
2013-03-26 12:48:00,46.9,17.0,30.47,WSW,249,4.0,5.0,30,0.00,,,0.00,868,Wunderground v.1.15,2013-03-26 17:48:00,
2013-03-26 12:49:00,46.9,16.3,30.47,WSW,247,4.0,5.0,29,0.00,,,0.00,870,Wunderground v.1.15,2013-03-26 17:49:00,
2013-03-26 12:50:00,46.9,16.3,30.46,WSW,242,4.0,5.0,29,0.00,,,0.00,872,Wunderground v.1.15,2013-03-26 17:50:00,
2013-03-26 12:51:00,47.0,17.1,30.46,WSW,242,4.0,4.0,30,0.00,,,0.00,872,Wunderground v.1.15,2013-03-26 17:51:00,
2013-03-26 12:53:00,47.2,16.5,30.46,NW,314,3.0,8.0,29,0.00,,,0.00,872,Wunderground v.1.15,2013-03-26 17:53:00,
2013-03-26 12:55:00,47.3,16.6,30.46,NW,316,4.0,9.0,29,0.00,,,0.00,875,Wunderground v.1.15,2013-03-26 17:55:00,
2013-03-26 12:58:00,47.3,16.6,30.46,NNW,328,5.0,9.0,29,0.00,,,0.00,877,Wunderground v.1.15,2013-03-26 17:58:00,
2013-03-26 13:01:00,47.3,16.6,30.46,North,5,4.0,4.0,29,0.00,,,0.00,881,Wunderground v.1.15,2013-03-26 18:01:00,
2013-03-26 13:04:00,47.6,16.9,30.46,East,88,3.0,4.0,29,0.00,,,0.00,882,Wunderground v.1.15,2013-03-26 18:04:00,
2013-03-26 13:07:00,47.7,16.9,30.46,ESE,117,2.0,4.0,29,0.00,,,0.00,884,Wunderground v.1.15,2013-03-26 18:07:00,
2013-03-26 13:10:00,48.0,17.2,30.45,ESE,119,1.0,4.0,29,0.00,,,0.00,888,Wunderground v.1.15,2013-03-26 18:10:00,
2013-03-26 13:11:00,48.1,17.3,30.45,ESE,119,1.0,1.0,29,0.00,,,0.00,888,Wunderground v.1.15,2013-03-26 18:11:00,
2013-03-26 13:12:00,48.1,17.3,30.45,NW,314,1.0,5.0,29,0.00,,,0.00,889,Wunderground v.1.15,2013-03-26 18:12:00,
2013-03-26 13:15:00,48.6,17.7,30.45,NNE,33,2.0,7.0,29,0.00,,,0.00,893,Wunderground v.1.15,2013-03-26 18:15:00,
2013-03-26 13:19:00,48.6,18.5,30.45,NW,304,3.0,7.0,30,0.00,,,0.00,891,Wunderground v.1.15,2013-03-26 18:19:00,
2013-03-26 13:21:00,48.8,17.9,30.45,WNW,292,5.0,5.0,29,0.00,,,0.00,895,Wunderground v.1.15,2013-03-26 18:21:00,
2013-03-26 13:22:00,48.9,18.0,30.45,NW,304,5.0,5.0,29,0.00,,,0.00,896,Wunderground v.1.15,2013-03-26 18:22:00,
2013-03-26 13:23:00,49.0,18.1,30.45,WNW,291,5.0,9.0,29,0.00,,,0.00,891,Wunderground v.1.15,2013-03-26 18:23:00,
2013-03-26 13:27:00,48.9,17.2,30.45,WNW,294,5.0,9.0,28,0.00,,,0.00,893,Wunderground v.1.15,2013-03-26 18:27:00,
2013-03-26 13:28:00,48.9,18.0,30.45,NNW,338,5.0,9.0,29,0.00,,,0.00,895,Wunderground v.1.15,2013-03-26 18:28:00,
2013-03-26 13:30:00,49.0,18.1,30.44,NNW,348,5.0,9.0,29,0.00,,,0.00,895,Wunderground v.1.15,2013-03-26 18:30:00,
2013-03-26 13:32:00,48.9,17.2,30.44,NNE,32,5.0,6.0,28,0.00,,,0.00,893,Wunderground v.1.15,2013-03-26 18:32:00,
2013-03-26 13:34:00,48.9,18.0,30.44,NW,311,4.0,6.0,29,0.00,,,0.00,893,Wunderground v.1.15,2013-03-26 18:34:00,
2013-03-26 13:37:00,49.1,18.2,30.44,West,268,4.0,8.0,29,0.00,,,0.00,893,Wunderground v.1.15,2013-03-26 18:37:00,
2013-03-26 13:40:00,49.2,18.3,30.44,NW,323,3.0,8.0,29,0.00,,,0.00,895,Wunderground v.1.15,2013-03-26 18:40:00,
2013-03-26 13:42:00,49.2,18.3,30.44,NW,316,3.0,7.0,29,0.00,,,0.00,898,Wunderground v.1.15,2013-03-26 18:42:00,
2013-03-26 13:44:00,49.3,17.5,30.44,NNW,340,3.0,7.0,28,0.00,,,0.00,895,Wunderground v.1.15,2013-03-26 18:44:00,
2013-03-26 13:47:00,48.9,18.0,30.44,ENE,67,4.0,8.0,29,0.00,,,0.00,895,Wunderground v.1.15,2013-03-26 18:47:00,
2013-03-26 13:48:00,48.9,18.0,30.44,ENE,76,4.0,8.0,29,0.00,,,0.00,895,Wunderground v.1.15,2013-03-26 18:48:00,
2013-03-26 13:52:00,48.9,18.0,30.44,NNE,14,5.0,7.0,29,0.00,,,0.00,896,Wunderground v.1.15,2013-03-26 18:52:00,
2013-03-26 13:55:00,49.7,18.7,30.43,WNW,300,4.0,7.0,29,0.00,,,0.00,891,Wunderground v.1.15,2013-03-26 18:55:00,
2013-03-26 13:58:00,49.8,18.0,30.43,WNW,299,4.0,10.0,28,0.00,,,0.00,895,Wunderground v.1.15,2013-03-26 18:58:00,
2013-03-26 13:59:00,49.9,18.0,30.43,NW,305,4.0,10.0,28,0.00,,,0.00,893,Wunderground v.1.15,2013-03-26 18:59:00,
2013-03-26 14:03:00,49.7,17.9,30.43,NW,324,5.0,6.0,28,0.00,,,0.00,888,Wunderground v.1.15,2013-03-26 19:03:00,
2013-03-26 14:04:00,49.7,17.9,30.43,NW,322,5.0,6.0,28,0.00,,,0.00,889,Wunderground v.1.15,2013-03-26 19:04:00,
2013-03-26 14:06:00,49.7,17.9,30.43,NW,311,4.0,7.0,28,0.00,,,0.00,886,Wunderground v.1.15,2013-03-26 19:06:00,
2013-03-26 14:07:00,49.7,17.9,30.42,NW,311,4.0,7.0,28,0.00,,,0.00,888,Wunderground v.1.15,2013-03-26 19:07:00,
2013-03-26 14:12:00,49.7,18.7,30.42,WSW,243,4.0,4.0,29,0.00,,,0.00,886,Wunderground v.1.15,2013-03-26 19:12:00,
2013-03-26 14:13:00,49.9,18.0,30.42,WNW,293,4.0,8.0,28,0.00,,,0.00,884,Wunderground v.1.15,2013-03-26 19:13:00,
2013-03-26 14:17:00,50.5,18.6,30.42,WNW,286,6.0,12.0,28,0.00,,,0.00,884,Wunderground v.1.15,2013-03-26 19:17:00,
2013-03-26 14:19:00,50.4,18.5,30.42,NW,309,6.0,12.0,28,0.00,,,0.00,882,Wunderground v.1.15,2013-03-26 19:19:00,
2013-03-26 14:21:00,50.3,18.4,30.42,NW,309,6.0,6.0,28,0.00,,,0.00,881,Wunderground v.1.15,2013-03-26 19:21:00,
2013-03-26 14:24:00,50.1,18.2,30.42,NNE,25,6.0,6.0,28,0.00,,,0.00,879,Wunderground v.1.15,2013-03-26 19:24:00,
2013-03-26 14:25:00,50.0,18.1,30.42,NNE,31,5.0,6.0,28,0.00,,,0.00,877,Wunderground v.1.15,2013-03-26 19:25:00,
2013-03-26 14:26:00,50.0,18.1,30.42,ENE,78,5.0,6.0,28,0.00,,,0.00,877,Wunderground v.1.15,2013-03-26 19:26:00,
2013-03-26 14:28:00,50.1,19.0,30.41,West,266,4.0,6.0,29,0.00,,,0.00,874,Wunderground v.1.15,2013-03-26 19:28:00,
2013-03-26 14:32:00,51.1,19.1,30.41,West,275,4.0,8.0,28,0.00,,,0.00,872,Wunderground v.1.15,2013-03-26 19:32:00,
2013-03-26 14:35:00,51.5,19.4,30.41,NNW,344,3.0,8.0,28,0.00,,,0.00,868,Wunderground v.1.15,2013-03-26 19:35:00,
2013-03-26 14:38:00,51.4,18.5,30.41,NW,325,4.0,8.0,27,0.00,,,0.00,865,Wunderground v.1.15,2013-03-26 19:38:00,
2013-03-26 14:39:00,51.3,18.4,30.41,NNW,346,4.0,8.0,27,0.00,,,0.00,865,Wunderground v.1.15,2013-03-26 19:39:00,
2013-03-26 14:40:00,51.0,18.1,30.41,NNE,27,4.0,8.0,27,0.00,,,0.00,863,Wunderground v.1.15,2013-03-26 19:40:00,
2013-03-26 14:41:00,51.0,19.0,30.41,NNE,28,4.0,4.0,28,0.00,,,0.00,863,Wunderground v.1.15,2013-03-26 19:41:00,
2013-03-26 14:43:00,50.8,18.0,30.40,NNW,335,4.0,4.0,27,0.00,,,0.00,858,Wunderground v.1.15,2013-03-26 19:43:00,
2013-03-26 14:45:00,50.9,18.9,30.40,NW,324,4.0,4.0,28,0.00,,,0.00,860,Wunderground v.1.15,2013-03-26 19:45:00,
2013-03-26 14:46:00,51.0,19.8,30.40,WNW,292,4.0,4.0,29,0.00,,,0.00,860,Wunderground v.1.15,2013-03-26 19:46:00,
2013-03-26 14:50:00,51.7,18.7,30.40,WNW,303,3.0,8.0,27,0.00,,,0.00,854,Wunderground v.1.15,2013-03-26 19:50:00,
2013-03-26 14:51:00,51.6,18.7,30.40,WNW,303,3.0,3.0,27,0.00,,,0.00,854,Wunderground v.1.15,2013-03-26 19:51:00,
2013-03-26 14:52:00,51.7,18.7,30.40,WNW,303,3.0,3.0,27,0.00,,,0.00,854,Wunderground v.1.15,2013-03-26 19:52:00,
2013-03-26 14:57:00,51.8,18.8,30.39,West,265,3.0,5.0,27,0.00,,,0.00,846,Wunderground v.1.15,2013-03-26 19:57:00,
2013-03-26 14:58:00,51.9,18.9,30.39,West,262,3.0,5.0,27,0.00,,,0.00,846,Wunderground v.1.15,2013-03-26 19:58:00,
2013-03-26 14:59:00,52.0,18.1,30.39,West,271,3.0,5.0,26,0.00,,,0.00,842,Wunderground v.1.15,2013-03-26 19:59:00,
2013-03-26 15:03:00,51.9,18.0,30.39,WNW,294,3.0,5.0,26,0.00,,,0.00,835,Wunderground v.1.15,2013-03-26 20:03:00,
2013-03-26 15:04:00,51.9,18.0,30.39,West,273,3.0,5.0,26,0.00,,,0.00,835,Wunderground v.1.15,2013-03-26 20:04:00,
2013-03-26 15:05:00,52.0,18.1,30.39,NNW,328,3.0,5.0,26,0.00,,,0.00,831,Wunderground v.1.15,2013-03-26 20:05:00,
2013-03-26 15:10:00,52.6,18.6,30.39,NW,320,2.0,5.0,26,0.00,,,0.00,828,Wunderground v.1.15,2013-03-26 20:10:00,
2013-03-26 15:13:00,53.0,19.0,30.39,NW,313,2.0,4.0,26,0.00,,,0.00,823,Wunderground v.1.15,2013-03-26 20:13:00,
2013-03-26 15:15:00,53.3,19.2,30.39,WNW,299,2.0,4.0,26,0.00,,,0.00,819,Wunderground v.1.15,2013-03-26 20:15:00,
2013-03-26 15:16:00,53.4,19.3,30.39,NNW,341,2.0,4.0,26,0.00,,,0.00,819,Wunderground v.1.15,2013-03-26 20:16:00,
2013-03-26 15:21:00,53.3,18.3,30.38,NW,321,4.0,6.0,25,0.00,,,0.00,807,Wunderground v.1.15,2013-03-26 20:21:00,
2013-03-26 15:22:00,53.2,18.2,30.38,NW,315,4.0,6.0,25,0.00,,,0.00,805,Wunderground v.1.15,2013-03-26 20:22:00,
2013-03-26 15:25:00,52.9,18.0,30.38,NNE,21,6.0,7.0,25,0.00,,,0.00,798,Wunderground v.1.15,2013-03-26 20:25:00,
2013-03-26 15:27:00,52.8,18.8,30.38,North,5,6.0,7.0,26,0.00,,,0.00,798,Wunderground v.1.15,2013-03-26 20:27:00,
2013-03-26 15:30:00,52.8,17.9,30.38,NW,323,5.0,7.0,25,0.00,,,0.00,791,Wunderground v.1.15,2013-03-26 20:30:00,
2013-03-26 15:32:00,52.8,18.8,30.38,North,11,4.0,7.0,26,0.00,,,0.00,788,Wunderground v.1.15,2013-03-26 20:32:00,
2013-03-26 15:34:00,53.0,19.0,30.38,North,355,4.0,7.0,26,0.00,,,0.00,782,Wunderground v.1.15,2013-03-26 20:34:00,
2013-03-26 15:36:00,52.8,17.9,30.37,NE,36,3.0,7.0,25,0.00,,,0.00,775,Wunderground v.1.15,2013-03-26 20:36:00,
2013-03-26 15:39:00,52.8,17.9,30.37,NW,315,4.0,7.0,25,0.00,,,0.00,772,Wunderground v.1.15,2013-03-26 20:39:00,
2013-03-26 15:42:00,52.8,18.8,30.37,NW,306,4.0,4.0,26,0.00,,,0.00,763,Wunderground v.1.15,2013-03-26 20:42:00,
2013-03-26 15:45:00,53.3,18.3,30.37,NNW,344,4.0,5.0,25,0.00,,,0.00,759,Wunderground v.1.15,2013-03-26 20:45:00,
2013-03-26 15:46:00,53.3,18.3,30.37,NNW,331,4.0,5.0,25,0.00,,,0.00,756,Wunderground v.1.15,2013-03-26 20:46:00,
2013-03-26 15:47:00,53.3,19.2,30.37,NNW,336,4.0,5.0,26,0.00,,,0.00,752,Wunderground v.1.15,2013-03-26 20:47:00,
2013-03-26 15:48:00,53.4,19.3,30.37,NW,315,4.0,5.0,26,0.00,,,0.00,752,Wunderground v.1.15,2013-03-26 20:48:00,
2013-03-26 15:50:00,53.4,18.4,30.36,NW,313,3.0,5.0,25,0.00,,,0.00,747,Wunderground v.1.15,2013-03-26 20:50:00,
2013-03-26 15:54:00,53.4,18.4,30.36,ENE,76,3.0,7.0,25,0.00,,,0.00,738,Wunderground v.1.15,2013-03-26 20:54:00,
2013-03-26 15:59:00,53.2,18.2,30.36,North,360,3.0,7.0,25,0.00,,,0.00,724,Wunderground v.1.15,2013-03-26 20:59:00,
2013-03-26 16:01:00,53.3,18.3,30.36,East,89,3.0,9.0,25,0.00,,,0.00,721,Wunderground v.1.15,2013-03-26 21:01:00,
2013-03-26 16:05:00,53.1,18.2,30.35,ESE,113,3.0,9.0,25,0.00,,,0.00,708,Wunderground v.1.15,2013-03-26 21:05:00,
2013-03-26 16:06:00,53.2,18.2,30.35,East,90,3.0,9.0,25,0.00,,,0.00,707,Wunderground v.1.15,2013-03-26 21:06:00,
2013-03-26 16:07:00,53.3,19.2,30.35,East,90,3.0,9.0,26,0.00,,,0.00,707,Wunderground v.1.15,2013-03-26 21:07:00,
2013-03-26 16:12:00,53.8,18.7,30.35,North,5,2.0,3.0,25,0.00,,,0.00,689,Wunderground v.1.15,2013-03-26 21:12:00,
2013-03-26 16:13:00,53.9,18.8,30.35,North,5,2.0,3.0,25,0.00,,,0.00,689,Wunderground v.1.15,2013-03-26 21:13:00,
2013-03-26 16:18:00,54.0,18.9,30.35,North,360,2.0,3.0,25,0.00,,,0.00,680,Wunderground v.1.15,2013-03-26 21:18:00,
2013-03-26 16:24:00,53.9,18.8,30.34,ENE,62,2.0,5.0,25,0.00,,,0.00,664,Wunderground v.1.15,2013-03-26 21:24:00,
2013-03-26 16:25:00,53.9,17.9,30.34,East,96,2.0,5.0,24,0.00,,,0.00,656,Wunderground v.1.15,2013-03-26 21:25:00,
2013-03-26 16:26:00,53.9,18.8,30.34,East,90,3.0,5.0,25,0.00,,,0.00,656,Wunderground v.1.15,2013-03-26 21:26:00,
2013-03-26 16:30:00,53.9,18.8,30.34,East,84,4.0,5.0,25,0.00,,,0.00,642,Wunderground v.1.15,2013-03-26 21:30:00,
2013-03-26 16:32:00,53.9,18.8,30.34,East,85,3.0,3.0,25,0.00,,,0.00,642,Wunderground v.1.15,2013-03-26 21:32:00,
2013-03-26 16:33:00,53.8,18.7,30.34,ESE,119,4.0,5.0,25,0.00,,,0.00,638,Wunderground v.1.15,2013-03-26 21:33:00,
2013-03-26 16:35:00,53.8,18.7,30.34,East,101,4.0,9.0,25,0.00,,,0.00,633,Wunderground v.1.15,2013-03-26 21:35:00,
2013-03-26 16:38:00,53.9,17.9,30.33,ESE,123,4.0,9.0,24,0.00,,,0.00,626,Wunderground v.1.15,2013-03-26 21:38:00,
2013-03-26 16:40:00,54.1,19.0,30.33,ESE,123,3.0,9.0,25,0.00,,,0.00,619,Wunderground v.1.15,2013-03-26 21:40:00,
2013-03-26 16:41:00,54.1,18.1,30.33,ESE,117,3.0,3.0,24,0.00,,,0.00,615,Wunderground v.1.15,2013-03-26 21:41:00,
2013-03-26 16:45:00,54.8,17.7,30.33,WNW,286,2.0,3.0,23,0.00,,,0.00,601,Wunderground v.1.15,2013-03-26 21:45:00,
2013-03-26 16:46:00,54.9,17.7,30.33,WNW,286,2.0,3.0,23,0.00,,,0.00,598,Wunderground v.1.15,2013-03-26 21:46:00,
2013-03-26 16:48:00,55.0,17.8,30.33,NNE,23,1.0,4.0,23,0.00,,,0.00,594,Wunderground v.1.15,2013-03-26 21:48:00,
2013-03-26 16:50:00,55.0,16.8,30.33,ENE,64,2.0,4.0,22,0.00,,,0.00,585,Wunderground v.1.15,2013-03-26 21:50:00,
2013-03-26 16:52:00,54.9,16.7,30.33,NE,55,2.0,3.0,22,0.00,,,0.00,580,Wunderground v.1.15,2013-03-26 21:52:00,
2013-03-26 16:55:00,55.1,17.9,30.33,NW,315,2.0,3.0,23,0.00,,,0.00,570,Wunderground v.1.15,2013-03-26 21:55:00,
2013-03-26 16:57:00,55.2,18.0,30.33,NW,315,3.0,3.0,23,0.00,,,0.00,568,Wunderground v.1.15,2013-03-26 21:57:00,
2013-03-26 17:00:00,55.6,17.3,30.33,NE,34,2.0,3.0,22,0.00,,,0.00,550,Wunderground v.1.15,2013-03-26 22:00:00,
2013-03-26 17:02:00,55.6,18.3,30.33,East,93,2.0,5.0,23,0.00,,,0.00,545,Wunderground v.1.15,2013-03-26 22:02:00,
2013-03-26 17:03:00,55.5,18.2,30.33,East,93,2.0,5.0,23,0.00,,,0.00,545,Wunderground v.1.15,2013-03-26 22:03:00,
2013-03-26 17:08:00,55.5,18.2,30.33,NNE,13,2.0,5.0,23,0.00,,,0.00,527,Wunderground v.1.15,2013-03-26 22:08:00,
2013-03-26 17:09:00,55.4,18.2,30.33,NNE,13,2.0,5.0,23,0.00,,,0.00,520,Wunderground v.1.15,2013-03-26 22:09:00,
2013-03-26 17:10:00,55.4,18.2,30.33,ENE,67,2.0,3.0,23,0.00,,,0.00,513,Wunderground v.1.15,2013-03-26 22:10:00,
2013-03-26 17:12:00,55.4,18.2,30.32,NE,49,2.0,3.0,23,0.00,,,0.00,512,Wunderground v.1.15,2013-03-26 22:12:00,
2013-03-26 17:16:00,55.5,18.2,30.33,ENE,57,2.0,4.0,23,0.00,,,0.00,496,Wunderground v.1.15,2013-03-26 22:16:00,
2013-03-26 17:18:00,55.4,17.1,30.32,NE,53,2.0,4.0,22,0.00,,,0.00,490,Wunderground v.1.15,2013-03-26 22:18:00,
2013-03-26 17:19:00,55.4,18.2,30.32,North,360,2.0,4.0,23,0.00,,,0.00,487,Wunderground v.1.15,2013-03-26 22:19:00,
2013-03-26 17:23:00,55.5,17.2,30.32,NNW,336,2.0,4.0,22,0.00,,,0.00,475,Wunderground v.1.15,2013-03-26 22:23:00,
2013-03-26 17:25:00,55.6,18.3,30.32,NNE,18,3.0,4.0,23,0.00,,,0.00,462,Wunderground v.1.15,2013-03-26 22:25:00,
2013-03-26 17:26:00,55.6,18.3,30.32,ENE,74,3.0,7.0,23,0.00,,,0.00,462,Wunderground v.1.15,2013-03-26 22:26:00,
2013-03-26 17:28:00,55.6,18.3,30.32,NE,45,3.0,7.0,23,0.00,,,0.00,455,Wunderground v.1.15,2013-03-26 22:28:00,
2013-03-26 17:30:00,55.6,18.3,30.32,NE,44,3.0,3.0,23,0.00,,,0.00,446,Wunderground v.1.15,2013-03-26 22:30:00,
2013-03-26 17:33:00,55.6,18.3,30.32,ESE,112,3.0,5.0,23,0.00,,,0.00,438,Wunderground v.1.15,2013-03-26 22:33:00,
2013-03-26 17:34:00,55.5,18.2,30.32,ESE,112,3.0,5.0,23,0.00,,,0.00,434,Wunderground v.1.15,2013-03-26 22:34:00,
2013-03-26 17:35:00,55.5,19.2,30.32,SE,138,3.0,5.0,24,0.00,,,0.00,427,Wunderground v.1.15,2013-03-26 22:35:00,
2013-03-26 17:39:00,55.6,18.3,30.31,East,87,3.0,7.0,23,0.00,,,0.00,418,Wunderground v.1.15,2013-03-26 22:39:00,
2013-03-26 17:40:00,55.5,18.2,30.31,East,88,4.0,5.0,23,0.00,,,0.00,413,Wunderground v.1.15,2013-03-26 22:40:00,
2013-03-26 17:42:00,55.4,18.2,30.31,East,97,4.0,9.0,23,0.00,,,0.00,410,Wunderground v.1.15,2013-03-26 22:42:00,
2013-03-26 17:43:00,55.4,18.2,30.31,East,88,5.0,9.0,23,0.00,,,0.00,404,Wunderground v.1.15,2013-03-26 22:43:00,
2013-03-26 17:46:00,55.5,18.2,30.31,NE,51,5.0,9.0,23,0.00,,,0.00,392,Wunderground v.1.15,2013-03-26 22:46:00,
2013-03-26 17:49:00,55.4,18.2,30.31,ENE,67,5.0,9.0,23,0.00,,,0.00,380,Wunderground v.1.15,2013-03-26 22:49:00,
2013-03-26 17:52:00,55.4,18.2,30.31,ENE,67,4.0,4.0,23,0.00,,,0.00,371,Wunderground v.1.15,2013-03-26 22:52:00,
2013-03-26 17:53:00,55.4,18.2,30.31,ENE,67,4.0,4.0,23,0.00,,,0.00,367,Wunderground v.1.15,2013-03-26 22:53:00,
2013-03-26 17:56:00,55.5,18.2,30.31,NE,36,3.0,4.0,23,0.00,,,0.00,353,Wunderground v.1.15,2013-03-26 22:56:00,
2013-03-26 17:59:00,55.5,18.2,30.31,NNW,337,3.0,6.0,23,0.00,,,0.00,343,Wunderground v.1.15,2013-03-26 22:59:00,
2013-03-26 18:00:00,55.6,17.3,30.31,NW,319,3.0,4.0,22,0.00,,,0.00,341,Wunderground v.1.15,2013-03-26 23:00:00,
2013-03-26 18:03:00,55.8,17.5,30.31,NW,319,3.0,4.0,22,0.00,,,0.00,330,Wunderground v.1.15,2013-03-26 23:03:00,
2013-03-26 18:07:00,56.0,17.6,30.31,East,94,3.0,5.0,22,0.00,,,0.00,313,Wunderground v.1.15,2013-03-26 23:07:00,
2013-03-26 18:09:00,55.9,17.6,30.31,East,82,4.0,7.0,22,0.00,,,0.00,304,Wunderground v.1.15,2013-03-26 23:09:00,
2013-03-26 18:12:00,55.7,17.4,30.31,ENE,59,4.0,4.0,22,0.00,,,0.00,294,Wunderground v.1.15,2013-03-26 23:12:00,
2013-03-26 18:13:00,55.7,17.4,30.31,ENE,78,4.0,4.0,22,0.00,,,0.00,290,Wunderground v.1.15,2013-03-26 23:13:00,
2013-03-26 18:15:00,55.6,17.3,30.31,ENE,74,4.0,4.0,22,0.00,,,0.00,276,Wunderground v.1.15,2013-03-26 23:15:00,
2013-03-26 18:19:00,55.6,17.3,30.31,ENE,70,3.0,4.0,22,0.00,,,0.00,264,Wunderground v.1.15,2013-03-26 23:19:00,
2013-03-26 18:20:00,55.8,18.5,30.31,NE,45,3.0,3.0,23,0.00,,,0.00,262,Wunderground v.1.15,2013-03-26 23:20:00,
2013-03-26 18:21:00,55.8,18.5,30.31,NE,45,3.0,3.0,23,0.00,,,0.00,257,Wunderground v.1.15,2013-03-26 23:21:00,
2013-03-26 18:23:00,56.0,17.6,30.31,NE,45,2.0,3.0,22,0.00,,,0.00,251,Wunderground v.1.15,2013-03-26 23:23:00,
2013-03-26 18:24:00,56.2,17.8,30.31,NE,45,2.0,3.0,22,0.00,,,0.00,248,Wunderground v.1.15,2013-03-26 23:24:00,
2013-03-26 18:25:00,56.4,18.0,30.31,NE,46,1.0,3.0,22,0.00,,,0.00,241,Wunderground v.1.15,2013-03-26 23:25:00,
2013-03-26 18:26:00,56.4,18.0,30.31,NE,45,1.0,3.0,22,0.00,,,0.00,237,Wunderground v.1.15,2013-03-26 23:26:00,
2013-03-26 18:30:00,56.1,17.7,30.31,ENE,70,1.0,3.0,22,0.00,,,0.00,221,Wunderground v.1.15,2013-03-26 23:30:00,
2013-03-26 18:32:00,56.0,17.6,30.31,ENE,71,2.0,3.0,22,0.00,,,0.00,214,Wunderground v.1.15,2013-03-26 23:32:00,
2013-03-26 18:35:00,55.8,18.5,30.31,ENE,71,2.0,3.0,23,0.00,,,0.00,202,Wunderground v.1.15,2013-03-26 23:35:00,
2013-03-26 18:39:00,56.0,18.7,30.31,East,98,2.0,3.0,23,0.00,,,0.00,188,Wunderground v.1.15,2013-03-26 23:39:00,
2013-03-26 18:42:00,56.1,18.8,30.31,East,98,2.0,3.0,23,0.00,,,0.00,178,Wunderground v.1.15,2013-03-26 23:42:00,
2013-03-26 18:44:00,56.2,18.8,30.31,East,98,1.0,3.0,23,0.00,,,0.00,167,Wunderground v.1.15,2013-03-26 23:44:00,
2013-03-26 18:45:00,56.2,18.8,30.31,East,98,1.0,3.0,23,0.00,,,0.00,160,Wunderground v.1.15,2013-03-26 23:45:00,
2013-03-26 18:47:00,56.2,18.8,30.31,East,98,1.0,3.0,23,0.00,,,0.00,156,Wunderground v.1.15,2013-03-26 23:47:00,
2013-03-26 18:50:00,56.1,18.8,30.31,East,98,1.0,1.0,23,0.00,,,0.00,137,Wunderground v.1.15,2013-03-26 23:50:00,
2013-03-26 18:52:00,56.1,18.8,30.31,East,98,1.0,1.0,23,0.00,,,0.00,134,Wunderground v.1.15,2013-03-26 23:52:00,
2013-03-26 18:54:00,56.0,18.7,30.31,East,98,1.0,2.0,23,0.00,,,0.00,123,Wunderground v.1.15,2013-03-26 23:54:00,
2013-03-26 18:56:00,56.0,18.7,30.31,East,98,1.0,2.0,23,0.00,,,0.00,116,Wunderground v.1.15,2013-03-26 23:56:00,
2013-03-26 18:59:00,55.8,18.5,30.31,East,98,1.0,3.0,23,0.00,,,0.00,107,Wunderground v.1.15,2013-03-26 23:59:00,
2013-03-26 19:03:00,55.6,19.3,30.31,East,98,2.0,5.0,24,0.00,,,0.00,91,Wunderground v.1.15,2013-03-27 00:03:00,
2013-03-26 19:04:00,55.5,21.1,30.31,East,98,2.0,6.0,26,0.00,,,0.00,88,Wunderground v.1.15,2013-03-27 00:04:00,
2013-03-26 19:08:00,55.2,19.0,30.31,ESE,119,4.0,7.0,24,0.00,,,0.00,74,Wunderground v.1.15,2013-03-27 00:08:00,
2013-03-26 19:09:00,55.1,19.9,30.31,ESE,119,4.0,7.0,25,0.00,,,0.00,70,Wunderground v.1.15,2013-03-27 00:09:00,
2013-03-26 19:11:00,55.0,19.8,30.31,ESE,119,4.0,5.0,25,0.00,,,0.00,60,Wunderground v.1.15,2013-03-27 00:11:00,
2013-03-26 19:15:00,54.8,19.6,30.31,SE,132,5.0,5.0,25,0.00,,,0.00,49,Wunderground v.1.15,2013-03-27 00:15:00,
2013-03-26 19:16:00,54.8,19.6,30.31,SE,131,5.0,5.0,25,0.00,,,0.00,49,Wunderground v.1.15,2013-03-27 00:16:00,
2013-03-26 19:17:00,54.7,19.5,30.31,ESE,123,4.0,5.0,25,0.00,,,0.00,47,Wunderground v.1.15,2013-03-27 00:17:00,
2013-03-26 19:19:00,54.7,19.5,30.31,ESE,121,4.0,5.0,25,0.00,,,0.00,40,Wunderground v.1.15,2013-03-27 00:19:00,
2013-03-26 19:22:00,54.6,19.4,30.31,ESE,115,4.0,4.0,25,0.00,,,0.00,35,Wunderground v.1.15,2013-03-27 00:22:00,
2013-03-26 19:24:00,54.6,19.4,30.31,ESE,109,3.0,4.0,25,0.00,,,0.00,28,Wunderground v.1.15,2013-03-27 00:24:00,
2013-03-26 19:26:00,54.6,19.4,30.31,ESE,103,3.0,4.0,25,0.00,,,0.00,25,Wunderground v.1.15,2013-03-27 00:26:00,
2013-03-26 19:30:00,54.5,19.3,30.31,ESE,106,3.0,4.0,25,0.00,,,0.00,14,Wunderground v.1.15,2013-03-27 00:30:00,
2013-03-26 19:32:00,54.4,19.3,30.31,ESE,106,2.0,3.0,25,0.00,,,0.00,12,Wunderground v.1.15,2013-03-27 00:32:00,
2013-03-26 19:35:00,54.3,19.2,30.31,ESE,106,2.0,4.0,25,0.00,,,0.00,9,Wunderground v.1.15,2013-03-27 00:35:00,
2013-03-26 19:36:00,54.3,19.2,30.31,ESE,106,2.0,4.0,25,0.00,,,0.00,7,Wunderground v.1.15,2013-03-27 00:36:00,
2013-03-26 19:38:00,54.2,19.1,30.31,ESE,109,2.0,5.0,25,0.00,,,0.00,7,Wunderground v.1.15,2013-03-27 00:38:00,
2013-03-26 19:41:00,54.0,19.8,30.31,ESE,108,3.0,3.0,26,0.00,,,0.00,5,Wunderground v.1.15,2013-03-27 00:41:00,
2013-03-26 19:42:00,54.0,19.8,30.31,ESE,110,3.0,3.0,26,0.00,,,0.00,0,Wunderground v.1.15,2013-03-27 00:42:00,
2013-03-26 19:43:00,53.9,19.8,30.31,ESE,114,3.0,3.0,26,0.00,,,0.00,0,Wunderground v.1.15,2013-03-27 00:43:00,
2013-03-26 19:45:00,53.8,19.7,30.31,ESE,114,3.0,4.0,26,0.00,,,0.00,0,Wunderground v.1.15,2013-03-27 00:45:00,
2013-03-26 19:46:00,53.8,19.7,30.31,ESE,114,3.0,4.0,26,0.00,,,0.00,0,Wunderground v.1.15,2013-03-27 00:46:00,
2013-03-26 19:47:00,53.8,19.7,30.31,ESE,114,3.0,4.0,26,0.00,,,0.00,0,Wunderground v.1.15,2013-03-27 00:47:00,
2013-03-26 19:49:00,53.7,20.5,30.31,ESE,115,3.0,5.0,27,0.00,,,0.00,0,Wunderground v.1.15,2013-03-27 00:49:00,
2013-03-26 19:52:00,53.4,21.1,30.31,ESE,123,4.0,9.0,28,0.00,,,0.00,0,Wunderground v.1.15,2013-03-27 00:52:00,
2013-03-26 19:53:00,53.3,21.0,30.31,SE,124,4.0,9.0,28,0.00,,,0.00,0,Wunderground v.1.15,2013-03-27 00:53:00,
2013-03-26 19:55:00,53.1,20.8,30.30,ESE,110,4.0,9.0,28,0.00,,,0.00,0,Wunderground v.1.15,2013-03-27 00:55:00,
2013-03-26 19:57:00,53.0,21.6,30.30,ESE,109,4.0,9.0,29,0.00,,,0.00,0,Wunderground v.1.15,2013-03-27 00:57:00,
2013-03-26 20:01:00,52.8,21.4,30.30,ESE,105,4.0,7.0,29,0.00,,,0.00,0,Wunderground v.1.15,2013-03-27 01:01:00,
2013-03-26 20:02:00,52.7,21.3,30.30,ESE,117,4.0,7.0,29,0.00,,,0.00,0,Wunderground v.1.15,2013-03-27 01:02:00,
2013-03-26 20:03:00,52.6,22.0,30.30,ESE,117,4.0,7.0,30,0.00,,,0.00,0,Wunderground v.1.15,2013-03-27 01:03:00,
2013-03-26 20:08:00,52.3,22.5,30.30,SE,124,4.0,7.0,31,0.00,,,0.00,0,Wunderground v.1.15,2013-03-27 01:08:00,
2013-03-26 20:10:00,52.2,22.4,30.30,ESE,114,5.0,8.0,31,0.00,,,0.00,0,Wunderground v.1.15,2013-03-27 01:10:00,
2013-03-26 20:12:00,52.2,22.4,30.30,ESE,105,5.0,5.0,31,0.00,,,0.00,0,Wunderground v.1.15,2013-03-27 01:12:00,
2013-03-26 20:13:00,52.1,22.3,30.30,ESE,105,5.0,7.0,31,0.00,,,0.00,0,Wunderground v.1.15,2013-03-27 01:13:00,
2013-03-26 20:14:00,52.0,22.3,30.30,ESE,103,5.0,7.0,31,0.00,,,0.00,0,Wunderground v.1.15,2013-03-27 01:14:00,
2013-03-26 20:15:00,52.0,22.3,30.30,ESE,110,5.0,7.0,31,0.00,,,0.00,0,Wunderground v.1.15,2013-03-27 01:15:00,
2013-03-26 20:19:00,51.9,22.9,30.30,ESE,107,4.0,7.0,32,0.00,,,0.00,0,Wunderground v.1.15,2013-03-27 01:19:00,
2013-03-26 20:20:00,51.8,22.8,30.30,ESE,103,4.0,7.0,32,0.00,,,0.00,0,Wunderground v.1.15,2013-03-27 01:20:00,
2013-03-26 20:25:00,51.6,22.7,30.30,ESE,113,3.0,4.0,32,0.00,,,0.00,0,Wunderground v.1.15,2013-03-27 01:25:00,
2013-03-26 20:26:00,51.5,22.6,30.30,ESE,113,3.0,4.0,32,0.00,,,0.00,0,Wunderground v.1.15,2013-03-27 01:26:00,
2013-03-26 20:29:00,51.4,23.2,30.30,ESE,109,3.0,4.0,33,0.00,,,0.00,0,Wunderground v.1.15,2013-03-27 01:29:00,
2013-03-26 20:30:00,51.3,23.1,30.30,ESE,108,3.0,4.0,33,0.00,,,0.00,0,Wunderground v.1.15,2013-03-27 01:30:00,
2013-03-26 20:31:00,51.3,23.1,30.30,ESE,106,3.0,3.0,33,0.00,,,0.00,0,Wunderground v.1.15,2013-03-27 01:31:00,
2013-03-26 20:32:00,51.3,23.1,30.30,ESE,107,3.0,3.0,33,0.00,,,0.00,0,Wunderground v.1.15,2013-03-27 01:32:00,
2013-03-26 20:34:00,51.2,23.0,30.30,ESE,109,3.0,3.0,33,0.00,,,0.00,0,Wunderground v.1.15,2013-03-27 01:34:00,
2013-03-26 20:37:00,51.2,23.0,30.30,ESE,106,3.0,3.0,33,0.00,,,0.00,0,Wunderground v.1.15,2013-03-27 01:37:00,
2013-03-26 20:40:00,51.1,23.0,30.30,ESE,107,3.0,4.0,33,0.00,,,0.00,0,Wunderground v.1.15,2013-03-27 01:40:00,
2013-03-26 20:41:00,51.0,22.9,30.30,ESE,107,3.0,3.0,33,0.00,,,0.00,0,Wunderground v.1.15,2013-03-27 01:41:00,
2013-03-26 20:43:00,51.0,22.9,30.30,ESE,107,3.0,3.0,33,0.00,,,0.00,0,Wunderground v.1.15,2013-03-27 01:43:00,
2013-03-26 20:47:00,50.8,23.4,30.30,ESE,105,3.0,4.0,34,0.00,,,0.00,0,Wunderground v.1.15,2013-03-27 01:47:00,
2013-03-26 20:48:00,50.8,23.4,30.30,ESE,105,3.0,4.0,34,0.00,,,0.00,0,Wunderground v.1.15,2013-03-27 01:48:00,
2013-03-26 20:49:00,50.8,23.4,30.30,ESE,105,3.0,4.0,34,0.00,,,0.00,0,Wunderground v.1.15,2013-03-27 01:49:00,
2013-03-26 20:52:00,50.6,23.2,30.30,ESE,111,3.0,3.0,34,0.00,,,0.00,0,Wunderground v.1.15,2013-03-27 01:52:00,
2013-03-26 20:54:00,50.6,23.2,30.30,ESE,111,3.0,4.0,34,0.00,,,0.00,0,Wunderground v.1.15,2013-03-27 01:54:00,
2013-03-26 20:57:00,50.5,23.1,30.30,ESE,111,3.0,4.0,34,0.00,,,0.00,0,Wunderground v.1.15,2013-03-27 01:57:00,
2013-03-26 20:59:00,50.4,23.1,30.30,ESE,109,3.0,4.0,34,0.00,,,0.00,0,Wunderground v.1.15,2013-03-27 01:59:00,
2013-03-26 21:01:00,50.3,23.0,30.30,ESE,111,3.0,3.0,34,0.00,,,0.00,0,Wunderground v.1.15,2013-03-27 02:01:00,
2013-03-26 21:02:00,50.3,23.0,30.30,ESE,111,3.0,3.0,34,0.00,,,0.00,0,Wunderground v.1.15,2013-03-27 02:02:00,
2013-03-26 21:04:00,50.3,23.7,30.30,ESE,111,3.0,3.0,35,0.00,,,0.00,0,Wunderground v.1.15,2013-03-27 02:04:00,
2013-03-26 21:06:00,50.2,23.6,30.30,ESE,111,2.0,3.0,35,0.00,,,0.00,0,Wunderground v.1.15,2013-03-27 02:06:00,
2013-03-26 21:09:00,50.1,23.5,30.31,ESE,110,2.0,3.0,35,0.00,,,0.00,0,Wunderground v.1.15,2013-03-27 02:09:00,
2013-03-26 21:12:00,50.1,23.5,30.30,ESE,107,2.0,2.0,35,0.00,,,0.00,0,Wunderground v.1.15,2013-03-27 02:12:00,
2013-03-26 21:13:00,50.0,23.4,30.30,ESE,107,2.0,2.0,35,0.00,,,0.00,0,Wunderground v.1.15,2013-03-27 02:13:00,
2013-03-26 21:15:00,50.0,23.4,30.30,ESE,108,2.0,3.0,35,0.00,,,0.00,0,Wunderground v.1.15,2013-03-27 02:15:00,
2013-03-26 21:17:00,49.9,23.3,30.30,ESE,109,2.0,3.0,35,0.00,,,0.00,0,Wunderground v.1.15,2013-03-27 02:17:00,
2013-03-26 21:20:00,49.8,23.2,30.30,ESE,109,2.0,3.0,35,0.00,,,0.00,0,Wunderground v.1.15,2013-03-27 02:20:00,
2013-03-26 21:21:00,49.8,23.2,30.30,ESE,109,2.0,2.0,35,0.00,,,0.00,0,Wunderground v.1.15,2013-03-27 02:21:00,
2013-03-26 21:25:00,49.7,23.1,30.30,ESE,108,2.0,3.0,35,0.00,,,0.00,0,Wunderground v.1.15,2013-03-27 02:25:00,
2013-03-26 21:28:00,49.6,23.7,30.30,ESE,112,2.0,4.0,36,0.00,,,0.00,0,Wunderground v.1.15,2013-03-27 02:28:00,
2013-03-26 21:29:00,49.6,23.0,30.30,ESE,111,2.0,4.0,35,0.00,,,0.00,0,Wunderground v.1.15,2013-03-27 02:29:00,
2013-03-26 21:30:00,49.6,23.7,30.30,ESE,108,2.0,4.0,36,0.00,,,0.00,0,Wunderground v.1.15,2013-03-27 02:30:00,
2013-03-26 21:34:00,49.5,23.6,30.31,ESE,104,3.0,5.0,36,0.00,,,0.00,0,Wunderground v.1.15,2013-03-27 02:34:00,
2013-03-26 21:35:00,49.4,23.5,30.31,ESE,111,3.0,5.0,36,0.00,,,0.00,0,Wunderground v.1.15,2013-03-27 02:35:00,
2013-03-26 21:39:00,49.4,23.5,30.31,ESE,112,3.0,5.0,36,0.00,,,0.00,0,Wunderground v.1.15,2013-03-27 02:39:00,
2013-03-26 21:40:00,49.4,23.5,30.31,ESE,111,3.0,5.0,36,0.00,,,0.00,0,Wunderground v.1.15,2013-03-27 02:40:00,
2013-03-26 21:45:00,49.4,23.5,30.31,ESE,113,3.0,5.0,36,0.00,,,0.00,0,Wunderground v.1.15,2013-03-27 02:45:00,
2013-03-26 21:47:00,49.3,23.4,30.31,ESE,114,3.0,5.0,36,0.00,,,0.00,0,Wunderground v.1.15,2013-03-27 02:47:00,
2013-03-26 21:51:00,49.2,23.4,30.31,ESE,109,3.0,4.0,36,0.00,,,0.00,0,Wunderground v.1.15,2013-03-27 02:51:00,
2013-03-26 21:52:00,49.2,23.4,30.31,ESE,108,3.0,4.0,36,0.00,,,0.00,0,Wunderground v.1.15,2013-03-27 02:52:00,
2013-03-26 21:53:00,49.1,23.3,30.31,ESE,115,3.0,5.0,36,0.00,,,0.00,0,Wunderground v.1.15,2013-03-27 02:53:00,
2013-03-26 21:55:00,49.1,23.3,30.31,ESE,115,3.0,5.0,36,0.00,,,0.00,0,Wunderground v.1.15,2013-03-27 02:55:00,
2013-03-26 21:57:00,49.1,23.9,30.31,ESE,115,3.0,5.0,37,0.00,,,0.00,0,Wunderground v.1.15,2013-03-27 02:57:00,
2013-03-26 22:01:00,49.0,23.8,30.31,ESE,116,3.0,4.0,37,0.00,,,0.00,0,Wunderground v.1.15,2013-03-27 03:01:00,
2013-03-26 22:02:00,49.0,23.2,30.31,ESE,106,3.0,4.0,36,0.00,,,0.00,0,Wunderground v.1.15,2013-03-27 03:02:00,
2013-03-26 22:04:00,49.0,23.8,30.31,ESE,111,3.0,4.0,37,0.00,,,0.00,0,Wunderground v.1.15,2013-03-27 03:04:00,
2013-03-26 22:05:00,49.0,23.8,30.31,ESE,114,3.0,4.0,37,0.00,,,0.00,0,Wunderground v.1.15,2013-03-27 03:05:00,
2013-03-26 22:06:00,49.0,23.8,30.31,ESE,114,3.0,4.0,37,0.00,,,0.00,0,Wunderground v.1.15,2013-03-27 03:06:00,
2013-03-26 22:10:00,48.9,23.7,30.31,ESE,105,3.0,4.0,37,0.00,,,0.00,0,Wunderground v.1.15,2013-03-27 03:10:00,
2013-03-26 22:11:00,48.9,23.7,30.31,ESE,105,3.0,3.0,37,0.00,,,0.00,0,Wunderground v.1.15,2013-03-27 03:11:00,
2013-03-26 22:13:00,48.9,23.7,30.32,ESE,113,3.0,4.0,37,0.00,,,0.00,0,Wunderground v.1.15,2013-03-27 03:13:00,
2013-03-26 22:17:00,48.8,23.6,30.32,ESE,116,3.0,4.0,37,0.00,,,0.00,0,Wunderground v.1.15,2013-03-27 03:17:00,
2013-03-26 22:18:00,48.8,23.6,30.32,ESE,118,4.0,4.0,37,0.00,,,0.00,0,Wunderground v.1.15,2013-03-27 03:18:00,
2013-03-26 22:19:00,48.8,23.6,30.32,ESE,121,4.0,7.0,37,0.00,,,0.00,0,Wunderground v.1.15,2013-03-27 03:19:00,
2013-03-26 22:23:00,48.8,23.6,30.32,ESE,123,4.0,7.0,37,0.00,,,0.00,0,Wunderground v.1.15,2013-03-27 03:23:00,
2013-03-26 22:25:00,48.8,23.6,30.32,ESE,119,4.0,7.0,37,0.00,,,0.00,0,Wunderground v.1.15,2013-03-27 03:25:00,
2013-03-26 22:28:00,48.8,23.6,30.32,ESE,113,4.0,7.0,37,0.00,,,0.00,0,Wunderground v.1.15,2013-03-27 03:28:00,
2013-03-26 22:30:00,48.8,23.6,30.31,ESE,115,4.0,7.0,37,0.00,,,0.00,0,Wunderground v.1.15,2013-03-27 03:30:00,
2013-03-26 22:32:00,48.7,23.6,30.31,ESE,119,4.0,5.0,37,0.00,,,0.00,0,Wunderground v.1.15,2013-03-27 03:32:00,
2013-03-26 22:35:00,48.7,22.9,30.31,ESE,121,4.0,5.0,36,0.00,,,0.00,0,Wunderground v.1.15,2013-03-27 03:35:00,
2013-03-26 22:37:00,48.6,22.8,30.31,ESE,113,4.0,5.0,36,0.00,,,0.00,0,Wunderground v.1.15,2013-03-27 03:37:00,
2013-03-26 22:38:00,48.6,22.8,30.31,ESE,113,4.0,5.0,36,0.00,,,0.00,0,Wunderground v.1.15,2013-03-27 03:38:00,
2013-03-26 22:40:00,48.6,22.8,30.31,ESE,116,4.0,5.0,36,0.00,,,0.00,0,Wunderground v.1.15,2013-03-27 03:40:00,
2013-03-26 22:43:00,48.5,22.7,30.32,ESE,116,4.0,4.0,36,0.00,,,0.00,0,Wunderground v.1.15,2013-03-27 03:43:00,
2013-03-26 22:45:00,48.5,22.7,30.32,ESE,116,4.0,4.0,36,0.00,,,0.00,0,Wunderground v.1.15,2013-03-27 03:45:00,
2013-03-26 22:47:00,48.5,22.7,30.32,ESE,121,3.0,4.0,36,0.00,,,0.00,0,Wunderground v.1.15,2013-03-27 03:47:00,
2013-03-26 22:48:00,48.5,22.7,30.32,ESE,122,4.0,5.0,36,0.00,,,0.00,0,Wunderground v.1.15,2013-03-27 03:48:00,
2013-03-26 22:52:00,48.5,22.7,30.32,ESE,121,4.0,4.0,36,0.00,,,0.00,0,Wunderground v.1.15,2013-03-27 03:52:00,
2013-03-26 22:54:00,48.4,22.6,30.32,ESE,122,4.0,4.0,36,0.00,,,0.00,0,Wunderground v.1.15,2013-03-27 03:54:00,
2013-03-26 22:55:00,48.4,22.6,30.32,ESE,122,3.0,4.0,36,0.00,,,0.00,0,Wunderground v.1.15,2013-03-27 03:55:00,
2013-03-26 22:58:00,48.3,23.2,30.32,ESE,122,3.0,4.0,37,0.00,,,0.00,0,Wunderground v.1.15,2013-03-27 03:58:00,
2013-03-26 23:01:00,48.2,23.1,30.32,ESE,122,3.0,3.0,37,0.00,,,0.00,0,Wunderground v.1.15,2013-03-27 04:01:00,
2013-03-26 23:02:00,48.2,23.1,30.32,ESE,122,2.0,3.0,37,0.00,,,0.00,0,Wunderground v.1.15,2013-03-27 04:02:00,
2013-03-26 23:03:00,48.1,23.0,30.32,ESE,122,2.0,3.0,37,0.00,,,0.00,0,Wunderground v.1.15,2013-03-27 04:03:00,
2013-03-26 23:08:00,48.1,23.0,30.32,ESE,122,2.0,4.0,37,0.00,,,0.00,0,Wunderground v.1.15,2013-03-27 04:08:00,
2013-03-26 23:09:00,48.0,22.9,30.32,ESE,122,2.0,4.0,37,0.00,,,0.00,0,Wunderground v.1.15,2013-03-27 04:09:00,
2013-03-26 23:10:00,48.0,22.9,30.32,ESE,122,2.0,4.0,37,0.00,,,0.00,0,Wunderground v.1.15,2013-03-27 04:10:00,
2013-03-26 23:16:00,47.8,22.8,30.32,ESE,121,3.0,4.0,37,0.00,,,0.00,0,Wunderground v.1.15,2013-03-27 04:16:00,
2013-03-26 23:18:00,47.8,23.4,30.32,ESE,121,3.0,4.0,38,0.00,,,0.00,0,Wunderground v.1.15,2013-03-27 04:18:00,
2013-03-26 23:20:00,47.7,23.3,30.32,ESE,121,3.0,4.0,38,0.00,,,0.00,0,Wunderground v.1.15,2013-03-27 04:20:00,
2013-03-26 23:22:00,47.7,23.3,30.32,ESE,117,3.0,4.0,38,0.00,,,0.00,0,Wunderground v.1.15,2013-03-27 04:22:00,
2013-03-26 23:24:00,47.7,23.3,30.32,ESE,113,3.0,5.0,38,0.00,,,0.00,0,Wunderground v.1.15,2013-03-27 04:24:00,
2013-03-26 23:25:00,47.7,23.3,30.32,ESE,110,3.0,5.0,38,0.00,,,0.00,0,Wunderground v.1.15,2013-03-27 04:25:00,
2013-03-26 23:30:00,47.5,23.1,30.32,ESE,117,3.0,5.0,38,0.00,,,0.00,0,Wunderground v.1.15,2013-03-27 04:30:00,
2013-03-26 23:33:00,47.4,23.0,30.32,ESE,109,3.0,5.0,38,0.00,,,0.00,0,Wunderground v.1.15,2013-03-27 04:33:00,
2013-03-26 23:39:00,47.3,22.9,30.32,ESE,114,3.0,5.0,38,0.00,,,0.00,0,Wunderground v.1.15,2013-03-27 04:39:00,
2013-03-26 23:40:00,47.3,22.9,30.32,ESE,105,3.0,5.0,38,0.00,,,0.00,0,Wunderground v.1.15,2013-03-27 04:40:00,
2013-03-26 23:43:00,47.3,22.9,30.31,ESE,105,4.0,7.0,38,0.00,,,0.00,0,Wunderground v.1.15,2013-03-27 04:43:00,
2013-03-26 23:46:00,47.2,23.5,30.31,ESE,104,4.0,7.0,39,0.00,,,0.00,0,Wunderground v.1.15,2013-03-27 04:46:00,
2013-03-26 23:47:00,47.1,22.8,30.31,ESE,105,4.0,7.0,38,0.00,,,0.00,0,Wunderground v.1.15,2013-03-27 04:47:00,
2013-03-26 23:52:00,47.1,22.8,30.31,ESE,110,4.0,4.0,38,0.00,,,0.00,0,Wunderground v.1.15,2013-03-27 04:52:00,
2013-03-26 23:53:00,47.2,23.5,30.31,ESE,110,4.0,5.0,39,0.00,,,0.00,0,Wunderground v.1.15,2013-03-27 04:53:00,
2013-03-26 23:55:00,47.1,23.4,30.31,SE,126,4.0,5.0,39,0.00,,,0.00,0,Wunderground v.1.15,2013-03-27 04:55:00,
2013-03-26 23:56:00,47.1,23.4,30.31,ESE,123,5.0,5.0,39,0.00,,,0.00,0,Wunderground v.1.15,2013-03-27 04:56:00,
2013-03-26 23:57:00,47.0,23.3,30.31,SE,126,5.0,6.0,39,0.00,,,0.00,0,Wunderground v.1.15,2013-03-27 04:57:00,
2013-03-26 23:58:00,47.1,23.4,30.31,ESE,115,5.0,6.0,39,0.00,,,0.00,0,Wunderground v.1.15,2013-03-27 04:58:00,